ECMWFFLT1_850_spd_000.txt.gz
Wind_Speed
8 6 4 4 4 4 5 6 7 8 9 10 10 10 10 9 8 7 5 4 3 3 2 2 3 3 3 4 4 4 4 5 5 6 7 7 7 7 7 7 9 9 9 10 13 14 16 18 17 15 14 14 13 13 14 16 17 17 18 17 17 17 18
7 7 5 4 3 3 3 4 5 6 6 7 8 9 9 10 9 9 9 7 6 5 4 3 3 2 3 4 5 5 6 6 6 7 7 8 8 8 8 8 8 7 7 7 6 7 10 14 16 17 19 20 20 18 18 18 18 19 20 20 20 19 18
8 9 8 6 4 3 3 3 3 3 3 5 6 7 8 8 8 8 8 7 6 5 5 4 3 3 3 4 4 5 6 6 7 8 8 9 10 10 11 11 11 10 9 9 7 7 9 10 13 14 15 17 20 22 21 20 20 20 21 21 22 22 20
10 9 8 7 5 4 3 2 2 1 1 2 3 5 5 6 6 6 6 5 5 4 3 3 2 3 3 4 4 5 6 7 7 8 9 9 10 11 12 12 12 12 11 11 10 10 10 11 12 15 15 15 18 21 22 21 21 21 21 21 22 23 23
11 10 8 6 5 4 4 3 3 3 2 1 1 2 3 4 4 4 4 3 3 3 3 3 3 3 3 4 4 5 5 6 8 9 10 11 11 11 11 12 12 12 12 12 12 13 13 13 14 16 18 17 18 21 21 21 23 22 22 22 22 23 23
14 12 9 7 7 6 5 5 4 4 3 3 2 2 2 2 2 2 2 2 2 3 3 3 4 4 5 5 5 5 5 6 6 7 9 10 11 11 11 12 12 12 13 13 14 15 15 16 16 17 19 18 19 21 20 20 22 23 23 23 23 24 24
17 15 11 9 8 8 7 6 5 5 5 4 4 4 4 3 2 1 1 0 1 2 3 3 3 4 4 5 5 5 5 6 6 7 8 9 10 10 11 11 12 13 13 14 15 16 16 18 18 18 20 20 21 23 23 22 23 23 24 23 22 23 24
19 18 15 11 10 9 8 7 7 6 6 6 6 6 5 4 3 2 1 1 1 2 3 4 4 4 4 5 6 6 6 6 7 7 8 8 9 10 11 11 12 13 14 15 16 17 17 18 18 19 19 20 22 24 25 25 26 26 26 26 26 25 23
22 21 19 15 12 11 9 8 8 8 7 7 8 8 7 5 4 3 2 2 2 3 4 5 5 5 6 6 7 8 9 9 9 9 8 8 9 10 11 12 12 13 14 15 16 17 17 18 19 19 19 18 19 22 23 24 26 28 27 26 28 28 25
24 23 21 18 15 13 11 10 10 9 9 9 10 9 8 7 5 4 3 3 4 5 6 6 6 6 6 7 8 9 10 11 11 12 11 10 10 10 11 12 13 14 15 16 16 17 18 18 19 20 20 20 18 19 21 23 25 27 26 24 25 27 27
25 25 23 20 18 16 13 12 12 12 11 11 11 10 9 8 7 5 4 5 6 7 8 8 7 7 8 9 10 11 12 12 13 13 13 13 12 12 12 13 14 15 16 17 17 18 18 18 18 19 20 20 20 20 20 22 26 28 26 23 19 18 19
26 25 24 22 20 18 16 15 14 13 13 12 13 12 11 9 8 7 6 7 8 9 10 10 9 9 10 11 12 13 14 15 15 15 15 15 16 16 16 16 16 17 17 17 18 18 18 18 18 18 18 19 20 21 21 21 26 29 27 23 20 17 17
28 26 25 24 22 20 18 17 16 15 14 14 14 13 12 11 9 9 8 9 10 11 12 12 11 11 12 13 14 15 15 16 17 17 17 18 18 19 19 19 19 19 19 19 18 17 18 18 18 18 18 18 18 19 21 21 25 30 29 27 28 27 24
31 29 27 25 24 22 20 19 18 17 16 16 15 15 13 12 11 11 11 11 12 13 14 13 13 13 13 14 15 16 17 18 18 19 20 21 21 21 21 21 20 20 21 21 21 20 19 18 19 19 18 19 18 17 19 20 24 29 30 29 30 31 29
32 31 29 28 26 24 22 20 19 19 18 18 17 16 15 15 14 14 14 15 15 15 15 15 15 15 15 16 17 17 18 19 20 21 22 23 23 23 22 21 20 19 19 20 21 22 22 21 21 20 19 19 20 18 18 19 21 25 29 29 29 31 31
34 33 32 31 29 27 24 21 21 21 20 19 19 18 18 17 17 17 18 18 17 17 17 17 17 17 18 18 18 19 20 20 21 23 24 24 25 24 24 23 22 20 19 19 19 20 22 23 23 22 21 20 21 21 21 20 20 22 26 29 29 30 31
38 36 34 33 32 29 25 23 22 23 22 21 21 21 20 20 21 21 21 20 19 19 19 19 18 19 19 19 20 20 21 22 22 23 24 25 25 26 25 25 24 23 22 21 20 19 20 22 23 24 24 22 22 22 22 21 21 22 24 28 30 29 31
43 42 38 36 36 33 27 24 24 24 24 23 22 22 23 23 24 23 22 21 21 20 20 20 20 20 20 20 21 21 22 23 23 24 25 25 26 26 26 26 26 25 24 24 23 23 22 22 23 23 24 24 22 21 20 20 20 21 23 27 31 31 31
45 45 40 38 39 37 31 26 26 26 25 24 23 24 25 25 25 24 23 22 22 21 20 21 21 20 20 21 22 23 23 24 25 25 26 26 27 26 26 26 26 26 26 25 25 25 25 24 24 24 25 25 24 22 21 19 19 19 22 27 31 33 32
45 47 44 39 38 39 35 29 28 27 26 24 24 24 26 26 26 24 24 23 22 21 21 21 21 20 21 22 23 24 25 26 27 28 28 28 28 27 27 27 27 26 26 26 27 27 27 26 26 26 26 27 27 26 25 25 24 23 24 26 29 31 32
43 46 46 43 39 37 36 34 30 28 26 24 23 24 26 26 25 24 23 22 21 21 21 21 20 21 21 22 24 25 27 28 29 30 29 29 28 27 28 27 27 27 26 26 27 27 28 28 29 29 28 28 28 29 29 29 29 27 26 25 26 28 30
39 41 43 44 42 38 37 37 34 29 26 23 22 23 25 25 25 24 23 22 21 21 20 20 20 21 22 23 25 27 28 29 29 29 28 27 27 27 27 27 28 28 28 28 28 28 28 28 30 31 31 30 30 30 31 31 31 29 26 24 24 26 29
31 34 38 42 44 42 39 38 36 31 26 22 21 23 24 25 24 23 22 22 21 20 19 19 20 21 23 24 26 27 28 28 27 27 26 27 27 27 27 28 28 29 29 30 30 30 30 30 31 32 32 32 32 32 32 33 32 31 29 26 24 25 28
24 28 33 38 43 45 42 39 38 33 26 22 21 22 23 23 23 22 22 21 19 19 19 20 21 22 23 25 26 26 26 25 24 24 25 26 27 28 28 29 30 30 31 32 32 32 33 33 33 33 34 34 34 33 33 33 34 34 32 30 28 25 26
23 27 30 34 42 47 42 40 40 34 26 23 22 22 22 22 23 22 20 19 18 18 20 21 22 23 24 24 25 25 24 24 23 23 24 25 26 28 29 30 31 32 32 33 33 34 35 35 35 35 35 35 35 35 34 33 34 34 34 34 34 32 30
24 28 30 34 42 43 39 38 37 29 23 22 22 22 22 22 21 20 19 17 17 19 21 22 22 23 23 23 23 24 24 24 24 24 25 26 27 29 30 31 32 32 32 33 34 34 35 36 36 36 37 36 36 36 35 34 33 33 34 35 37 38 37
24 29 32 36 40 39 38 38 35 26 23 23 22 21 20 18 18 18 17 17 19 21 22 22 21 21 21 21 22 23 24 24 25 26 27 28 29 30 31 32 33 33 33 33 33 33 34 35 36 37 37 37 37 37 36 36 34 34 34 35 37 40 40
24 29 33 37 39 38 37 37 31 25 24 22 20 18 17 16 17 17 17 19 21 21 21 20 19 19 20 21 22 23 24 25 27 29 30 30 31 32 32 32 33 34 33 33 32 32 33 33 34 36 37 38 38 38 37 36 35 35 35 35 37 38 39
24 27 32 36 37 37 38 36 27 23 24 22 18 16 14 14 15 17 19 21 21 20 19 18 18 19 21 22 22 23 25 27 29 31 32 33 34 35 35 34 35 35 35 34 32 31 31 31 33 34 36 37 38 38 38 37 35 35 35 36 37 38 38
24 26 30 33 34 36 39 36 29 27 28 24 18 14 13 14 15 17 19 20 19 18 17 16 17 19 21 22 23 24 26 28 31 33 34 36 37 38 38 37 37 37 37 35 33 31 29 30 31 33 35 37 38 39 39 37 35 35 35 36 37 36 37
24 26 28 30 32 35 35 31 30 30 27 21 17 14 13 13 15 17 17 17 17 16 14 15 17 20 21 22 23 24 27 29 32 35 36 38 39 41 41 41 39 38 38 37 34 32 30 29 31 33 33 36 38 39 40 39 38 37 36 36 36 36 37
23 25 27 30 31 33 32 30 31 28 22 19 18 15 12 11 13 14 15 15 14 13 14 15 17 19 21 21 23 25 27 31 34 36 38 40 42 43 44 43 41 39 39 38 36 34 33 31 33 34 33 35 38 40 40 39 39 38 36 37 36 37 38
22 25 26 28 31 33 33 32 28 23 18 16 12 10 9 10 11 12 12 12 12 13 14 15 17 19 21 21 23 25 28 31 34 37 40 42 44 45 45 45 43 41 40 39 37 36 35 34 34 35 34 34 37 38 38 38 37 35 35 36 36 37 38
23 24 27 31 34 35 34 29 22 16 13 10 8 7 7 7 8 8 9 10 11 13 15 16 18 19 21 22 24 26 28 31 35 38 41 43 44 46 46 46 44 42 41 40 39 38 37 36 35 36 36 36 38 39 38 38 38 36 35 37 37 37 37
25 28 33 37 37 35 29 21 15 13 12 10 9 8 7 5 5 6 7 9 11 13 15 17 19 19 21 22 24 26 29 32 35 39 42 44 45 46 46 46 45 43 42 41 41 39 38 38 37 37 38 38 39 39 39 40 39 38 38 39 38 38 37
29 34 38 39 36 29 21 16 14 14 14 12 11 9 6 4 3 5 6 9 12 13 15 17 18 19 21 22 23 25 29 32 36 39 42 44 45 46 46 46 45 44 43 43 42 40 39 38 37 37 37 36 36 35 36 37 38 39 40 40 41 41 40
32 33 32 30 26 22 19 19 18 16 14 13 10 8 5 2 2 4 6 8 10 11 14 15 17 19 20 21 23 26 29 33 36 38 41 43 45 46 46 46 45 45 44 43 41 40 37 35 33 32 32 31 30 30 32 34 36 37 39 40 41 42 42

ECMWFFLT1_850_spd_003.txt.gz
Wind_Speed
9 6 5 5 4 5 5 6 7 7 8 10 11 11 11 11 10 8 7 6 5 4 3 2 2 2 2 3 3 4 4 5 5 5 5 5 5 6 8 9 10 11 10 10 10 11 12 13 15 16 15 14 13 13 13 13 13 14 15 15 15 14 12
10 8 6 5 4 4 4 4 5 6 7 9 10 11 11 11 10 10 9 8 7 6 5 4 3 2 1 1 2 3 4 5 6 6 5 6 6 6 6 7 8 8 7 7 8 9 9 9 11 12 14 16 17 17 17 17 17 17 18 17 17 17 16
12 10 8 7 5 5 4 4 4 5 5 7 8 9 10 10 10 9 8 7 6 6 5 4 3 3 2 1 1 2 3 4 5 6 6 6 7 7 8 8 8 8 8 8 8 9 9 8 9 10 11 13 16 18 19 19 18 18 18 18 17 17 17
13 11 10 9 7 6 5 5 4 4 4 5 5 7 8 8 8 7 6 5 5 4 4 4 3 3 3 3 2 2 1 2 4 5 6 7 7 8 8 9 8 8 9 10 10 10 10 9 10 11 12 12 14 17 18 19 20 19 19 19 17 16 16
13 12 10 9 8 7 6 6 5 5 4 4 4 4 5 6 6 5 5 4 3 3 3 3 4 4 4 4 4 4 3 2 2 3 5 7 8 9 9 9 8 8 9 10 11 11 11 11 11 12 12 13 15 16 16 19 21 20 20 19 18 17 16
13 12 10 9 8 8 7 7 6 5 4 4 4 3 4 4 4 4 3 2 2 2 2 3 3 4 4 4 4 4 4 4 4 4 4 5 7 8 9 9 9 10 11 11 12 13 13 14 15 15 15 15 17 18 18 20 20 20 19 17 15 16 16
15 13 12 10 9 9 9 8 6 5 4 4 4 4 4 4 3 3 3 1 1 0 1 2 3 3 4 4 4 4 5 5 5 6 6 6 6 6 7 8 10 11 12 13 14 15 15 16 17 18 20 20 21 21 20 18 17 18 18 15 15 16 16
16 14 13 12 11 11 11 10 8 6 5 5 5 5 5 5 4 3 3 2 1 1 1 1 2 3 3 4 4 5 6 6 7 8 8 8 8 8 7 7 8 9 10 12 13 14 16 17 18 18 19 20 20 20 19 18 16 17 17 16 16 17 15
17 17 15 14 13 13 12 12 10 8 6 6 7 6 6 6 5 5 4 3 3 2 2 2 2 3 4 4 5 6 7 8 9 10 11 11 11 11 10 10 10 10 10 11 11 12 14 15 16 18 18 17 17 17 18 18 18 16 14 14 13 13 11
17 18 18 17 15 15 15 14 13 11 9 8 8 8 7 7 7 7 6 5 5 4 4 4 4 4 5 6 7 8 9 9 10 11 12 12 12 13 12 12 12 12 12 12 12 13 13 14 15 16 17 17 17 17 16 19 21 17 14 14 13 11 12
17 19 20 19 18 18 18 17 15 14 12 10 10 9 9 9 9 9 8 7 6 6 5 5 5 5 5 6 7 9 10 11 12 12 13 13 13 13 14 13 13 13 14 13 13 14 13 14 14 14 16 16 16 17 17 20 25 23 17 16 14 11 11
20 20 21 22 22 21 20 19 18 16 15 13 12 11 11 10 10 10 10 9 8 8 6 6 6 6 7 8 8 9 10 12 13 14 15 15 15 16 16 16 16 15 15 14 14 14 13 12 13 13 14 12 10 12 15 18 26 28 22 20 19 16 16
22 23 23 24 24 24 22 21 20 19 17 16 15 14 13 12 12 12 11 11 10 9 8 8 8 8 9 10 10 10 11 12 13 14 15 16 17 18 18 18 19 18 18 17 16 15 13 12 11 11 11 10 8 9 11 13 22 30 27 25 26 25 24
23 23 25 26 26 26 25 23 22 21 19 18 17 16 16 14 13 13 13 13 12 11 11 10 11 11 12 12 12 12 12 12 13 13 14 16 17 17 18 19 20 20 20 19 18 17 16 14 13 10 8 8 8 9 9 11 19 28 29 26 27 28 27
24 23 25 28 29 28 27 25 24 23 22 20 19 18 17 16 15 15 15 15 14 13 13 13 13 14 14 15 15 15 14 14 14 15 15 16 17 17 18 19 20 20 20 19 18 18 17 16 15 13 10 8 8 8 10 13 16 24 29 27 25 27 27
32 29 28 29 30 30 29 27 26 25 24 22 21 19 19 18 17 17 17 17 16 15 14 14 15 16 16 17 17 17 17 17 17 17 18 18 19 19 20 21 21 20 20 19 18 17 17 17 16 16 15 12 11 9 10 12 15 21 28 28 25 25 27
39 39 36 33 31 30 31 30 28 27 26 24 22 21 20 20 20 20 19 19 18 17 16 17 18 18 19 19 20 19 19 19 19 19 20 20 21 22 22 22 22 21 20 19 18 17 17 17 17 17 17 16 15 13 10 11 14 17 22 26 25 23 25
39 42 42 40 36 32 31 32 31 30 28 26 25 23 22 22 22 22 21 21 20 19 19 20 20 21 22 22 22 21 21 21 21 21 22 22 23 24 23 22 21 20 19 18 18 18 18 18 18 18 18 18 18 17 15 13 14 16 18 22 24 22 23
33 38 42 44 43 38 35 34 34 34 31 29 27 25 24 25 24 24 23 23 23 22 22 23 23 24 24 23 23 23 22 22 22 23 24 24 25 23 21 20 19 19 18 18 18 18 18 19 19 19 19 19 19 20 20 19 19 20 22 24 27 28 28
25 30 35 40 42 42 40 38 37 37 35 32 30 28 27 27 26 25 24 24 25 25 25 25 25 24 24 24 24 24 23 22 23 24 25 25 24 22 20 19 19 18 18 18 19 19 19 20 20 20 20 19 19 19 21 22 22 23 26 28 30 31 31
17 21 27 32 36 40 40 39 38 37 38 36 33 30 30 28 27 26 25 25 26 26 26 26 25 25 24 24 24 24 23 23 24 25 25 24 23 22 21 20 19 19 19 20 20 20 20 21 21 22 20 18 17 16 17 19 20 21 23 26 29 31 32
12 15 20 24 29 33 36 38 37 36 39 40 37 34 33 30 27 26 25 26 26 27 27 26 25 24 24 24 24 23 23 24 24 24 24 23 22 21 21 21 21 21 21 21 21 21 21 21 22 23 23 21 21 20 17 16 17 17 19 22 24 26 29
13 13 16 19 22 25 29 33 34 36 40 42 39 36 33 27 25 25 24 25 26 26 26 24 23 24 23 23 23 23 23 24 24 23 22 21 21 21 21 22 23 23 23 24 24 24 23 23 22 23 23 23 24 24 23 21 19 19 19 20 20 21 23
16 15 15 15 18 21 24 28 31 35 40 39 36 35 31 24 23 25 24 25 26 26 25 22 22 23 22 22 22 22 23 23 23 22 21 21 22 22 23 24 25 25 25 25 26 26 26 25 25 24 24 24 24 25 26 26 25 23 22 21 21 20 21
19 19 17 16 17 20 23 26 28 32 36 34 32 33 29 24 25 26 25 25 26 24 22 20 21 22 22 21 22 22 23 22 22 21 21 21 22 23 25 26 26 27 26 26 26 27 28 28 28 28 28 27 27 27 27 27 28 28 26 25 23 23 23
22 22 21 19 19 21 24 25 26 30 33 33 34 34 29 25 27 28 26 25 25 22 20 19 19 19 20 21 21 21 22 21 21 21 22 23 24 25 26 27 28 29 29 28 28 28 29 29 30 31 31 31 31 31 30 30 29 29 29 28 27 25 23
22 23 23 22 21 21 23 25 26 30 33 34 35 35 32 29 28 28 26 25 23 20 18 17 17 18 20 21 21 21 21 21 22 22 22 23 25 26 28 29 31 32 32 31 30 29 29 30 31 32 32 33 33 32 32 30 27 27 28 29 29 28 24
22 23 23 23 22 21 23 25 28 30 33 34 36 37 36 32 28 27 25 23 20 17 15 15 16 18 19 20 20 21 21 22 22 22 23 24 26 28 29 31 33 34 35 35 33 31 30 30 31 32 33 34 33 32 31 27 23 22 23 23 25 25 23
23 23 22 22 21 20 21 24 27 30 33 35 35 37 35 30 27 26 24 20 17 15 14 15 16 18 18 19 20 21 22 22 23 24 25 26 27 30 31 33 34 36 37 38 36 33 31 30 32 33 33 32 30 28 27 26 26 28 29 28 27 26 25
24 23 22 21 20 20 20 22 25 30 33 36 37 38 34 30 27 25 21 17 14 14 14 15 16 17 17 17 19 20 21 22 24 25 27 28 30 32 34 34 35 37 39 39 38 35 32 31 33 32 29 27 25 24 24 23 26 30 32 33 34 34 34
23 22 23 22 20 18 18 20 23 28 33 38 38 36 31 27 24 20 16 14 13 13 14 15 15 15 15 16 17 19 20 22 25 26 28 30 33 35 37 38 38 38 40 39 37 36 33 33 34 31 27 26 25 24 23 22 24 26 28 30 31 31 32
22 21 21 21 18 17 18 20 23 28 35 37 35 31 27 23 19 15 14 13 12 12 12 12 12 12 13 14 16 18 20 23 25 27 29 31 35 38 40 41 41 41 42 40 37 36 34 33 33 32 28 26 26 25 24 24 24 23 23 24 24 24 24
22 20 20 18 16 15 18 21 26 32 37 35 31 28 24 19 16 14 13 12 10 10 9 9 10 11 12 13 15 18 20 23 26 28 29 32 36 39 40 42 44 44 43 41 39 37 35 33 33 33 31 28 28 28 27 26 24 24 24 24 24 25 26
21 20 18 15 13 14 20 24 28 34 37 34 29 25 20 16 14 12 10 8 7 7 8 9 10 11 13 14 16 18 21 23 25 27 30 33 36 39 41 43 41 38 38 39 39 38 36 34 33 33 33 32 32 32 31 30 30 29 29 28 28 29 29
20 19 17 14 12 15 21 26 31 36 36 30 26 22 18 15 12 8 6 6 6 6 8 10 11 12 14 15 17 19 22 25 26 28 32 35 37 40 42 37 31 30 35 40 40 38 37 34 32 32 33 33 32 30 29 30 30 29 29 28 27 27 26
18 18 16 13 13 16 23 30 35 35 31 28 25 20 16 13 10 8 7 6 5 6 8 10 12 14 16 17 19 21 23 26 27 29 33 36 38 40 37 31 28 33 38 40 38 36 35 32 30 30 29 28 27 25 25 27 28 27 28 27 27 27 26
16 15 14 14 17 22 30 35 35 31 28 26 22 18 17 14 12 10 8 4 2 3 6 8 11 14 16 17 19 21 23 25 27 29 32 35 37 37 35 33 35 39 39 37 35 34 32 30 28 27 25 23 22 23 24 26 27 27 28 30 31 32 32

ECMWFFLT1_850_spd_006.txt.gz
Wind_Speed
10 9 9 7 6 5 6 7 7 7 7 8 8 9 9 8 8 7 7 8 8 7 6 6 5 5 3 2 2 3 3 3 3 3 4 5 3 2 5 5 5 7 8 9 9 9 8 8 8 8 9 10 11 11 11 9 8 9 12 13 12 11 11
11 10 9 7 6 5 5 6 7 7 7 7 8 8 8 8 9 8 8 8 8 8 7 6 5 4 4 3 3 4 4 4 5 4 2 2 1 1 1 1 2 3 4 5 7 7 7 8 9 8 8 10 12 13 12 12 12 12 14 15 14 12 12
14 12 10 8 6 5 4 5 6 6 6 6 7 7 7 7 7 7 7 7 7 8 7 6 6 6 6 5 4 3 1 2 4 5 4 4 4 4 4 4 3 3 4 4 5 5 6 7 8 8 8 9 11 14 16 17 16 15 14 14 15 14 13
15 13 12 9 7 6 5 4 5 6 5 5 5 5 5 5 6 6 5 5 6 6 6 7 7 7 7 7 7 6 5 3 2 1 2 3 4 5 6 7 6 5 6 6 6 8 8 9 10 10 10 9 11 14 17 18 17 17 15 15 15 15 13
14 14 12 10 8 7 6 6 6 6 6 5 4 4 4 4 4 4 4 4 4 5 5 6 6 6 6 7 7 7 7 6 5 5 4 3 3 4 5 6 7 8 10 10 11 11 11 11 12 12 12 11 11 13 13 14 15 16 15 15 15 14 13
15 14 13 11 9 8 8 7 6 6 6 6 5 3 3 2 2 2 3 3 3 3 4 5 5 5 5 6 6 6 6 6 6 6 6 6 6 5 6 6 7 8 9 10 11 11 11 12 11 10 11 12 13 14 13 13 14 14 12 12 12 12 12
16 15 14 12 10 10 9 7 6 7 7 6 6 4 3 2 2 2 1 1 2 2 2 3 4 5 5 5 5 6 6 6 7 7 8 8 7 7 7 7 7 8 9 10 11 11 12 12 11 11 13 14 15 16 14 12 12 11 10 9 9 10 11
18 17 16 14 12 11 10 9 7 8 8 8 7 6 4 3 3 3 2 1 1 1 1 2 3 4 4 4 4 5 5 7 7 8 9 9 8 8 7 7 7 7 8 8 9 10 11 12 13 14 15 14 15 16 15 13 11 10 9 8 8 8 8
20 19 17 16 15 13 11 10 9 8 8 9 9 7 6 5 5 4 4 3 3 2 1 1 1 2 2 3 3 4 5 7 8 9 10 10 10 9 8 7 6 7 7 7 8 9 10 11 12 13 13 12 12 13 13 13 12 9 8 7 7 6 6
21 21 19 18 16 15 13 12 11 11 10 10 10 8 7 7 7 6 6 6 5 4 3 2 1 1 1 1 2 4 5 7 8 10 10 11 11 11 10 9 8 8 8 8 8 8 9 10 11 12 12 10 10 12 12 13 12 11 10 9 7 7 7
20 21 21 20 18 16 15 14 14 14 13 12 11 10 9 8 8 8 8 8 8 7 6 4 4 3 3 3 3 4 5 6 8 9 10 11 12 12 12 12 11 11 11 11 10 9 9 9 10 11 11 10 10 11 12 13 13 12 12 10 8 8 8
21 21 21 21 20 19 18 16 16 15 15 15 14 13 12 11 10 10 10 10 10 9 8 6 5 5 5 5 6 6 6 7 8 9 10 11 12 13 13 14 14 13 14 14 12 12 11 9 9 9 10 10 11 13 13 14 14 13 11 11 12 13 13
23 22 22 22 22 21 20 19 18 17 17 17 17 16 15 13 12 11 12 12 12 11 10 8 6 6 6 7 7 8 8 8 9 10 11 12 13 14 15 16 16 16 17 15 12 12 12 11 10 9 9 10 12 14 15 14 15 16 14 15 17 17 16
26 25 24 23 23 23 22 21 21 20 19 18 19 19 18 17 15 14 13 14 14 14 13 11 9 8 8 8 8 8 9 9 10 10 12 13 14 15 16 16 17 19 19 16 12 10 9 10 11 11 10 10 10 12 14 15 16 17 17 16 16 16 16
30 29 27 26 25 24 24 24 23 22 21 20 21 21 20 20 18 16 16 16 16 16 14 13 12 10 10 10 9 9 9 9 10 11 12 13 14 16 17 17 17 19 20 18 15 11 8 9 9 8 10 11 11 13 14 15 17 18 19 18 17 18 18
31 31 31 31 29 27 26 26 25 25 24 23 22 22 23 22 21 19 18 18 18 17 16 15 14 13 13 12 11 11 11 11 11 12 13 14 15 16 17 18 18 18 18 17 16 13 10 10 9 8 10 12 13 15 16 18 19 20 21 21 20 19 17
27 30 32 33 33 32 31 28 26 26 26 26 24 24 25 25 23 22 22 21 20 19 18 17 16 16 15 14 13 13 13 13 14 14 14 15 16 17 18 18 17 17 17 16 16 14 11 11 11 11 11 12 13 14 16 18 19 19 20 21 22 22 21
23 26 29 32 32 34 34 32 29 27 27 28 27 26 27 27 26 26 25 24 23 21 20 19 18 18 17 16 16 16 16 16 16 16 16 17 17 18 18 18 17 16 16 16 15 13 12 13 14 13 13 13 13 13 15 16 17 18 19 21 22 23 24
19 21 24 30 33 35 35 35 33 31 29 29 30 29 30 30 29 29 27 26 25 23 22 21 21 21 19 18 18 17 18 18 18 17 17 17 18 18 18 17 16 16 15 15 15 15 14 15 15 15 15 15 14 15 17 18 20 20 21 21 22 21 22
13 15 17 22 28 32 32 32 32 33 31 31 32 32 33 33 32 30 29 28 27 25 24 23 23 22 21 20 19 19 20 20 20 20 19 19 19 19 18 17 16 15 15 15 15 15 15 16 16 16 16 16 15 16 17 19 20 21 22 23 23 21 21
9 11 12 14 17 21 23 23 24 26 28 30 31 31 32 33 32 31 31 31 30 28 27 26 24 23 22 21 20 21 21 20 20 20 20 20 20 19 18 17 16 16 15 16 16 16 17 17 17 17 16 16 16 17 17 18 19 20 22 23 23 22 21
9 10 11 12 13 14 16 17 18 19 22 25 27 29 33 36 34 33 34 33 32 30 29 27 26 24 23 22 21 21 21 20 20 20 20 19 19 18 18 17 17 17 17 17 18 18 18 18 19 19 19 18 17 18 18 19 19 20 21 21 22 21 21
11 12 12 13 14 13 13 13 15 16 17 19 20 23 30 34 34 35 37 35 34 32 30 29 28 26 23 22 21 21 21 20 19 19 18 17 17 17 17 17 19 20 20 19 19 20 19 19 20 20 20 20 20 20 20 21 21 21 21 22 22 22 21
13 14 15 15 16 16 14 12 13 14 14 16 18 20 24 28 31 34 36 36 34 33 32 31 29 26 23 21 21 21 20 20 19 18 17 16 15 15 16 17 19 22 23 21 21 22 22 23 23 23 23 23 23 23 24 24 25 24 23 23 23 23 23
13 14 15 16 17 18 17 14 12 11 11 14 18 21 23 24 27 31 34 36 36 34 31 29 27 25 23 22 21 20 19 19 18 17 16 16 15 14 16 19 20 22 23 23 22 23 24 25 26 27 28 27 27 26 26 26 27 27 27 27 26 25 24
15 15 16 17 18 17 18 17 14 11 12 13 16 19 19 21 26 31 35 39 39 34 28 27 27 25 23 22 21 19 17 18 17 16 16 17 17 17 18 19 20 20 21 23 24 24 24 24 26 28 29 30 30 29 29 29 29 29 29 29 31 31 29
16 17 17 18 20 19 18 18 16 12 13 15 17 18 19 21 26 31 35 38 38 32 28 27 27 24 21 20 19 17 15 16 16 16 17 18 19 19 20 19 20 20 20 22 23 23 24 26 28 29 29 29 28 28 30 30 28 27 28 27 29 32 30
18 19 19 19 21 21 21 20 18 13 12 15 18 17 18 21 26 30 33 36 35 32 28 27 24 21 18 17 16 15 15 17 17 17 18 19 19 19 19 20 22 22 22 23 23 25 28 29 31 32 31 31 30 29 28 25 22 23 24 24 25 26 25
20 20 20 19 20 22 22 22 20 15 11 13 16 15 15 21 27 30 33 34 34 32 27 23 19 16 15 14 14 14 15 15 16 16 16 17 18 17 18 21 22 23 24 24 25 28 31 32 33 33 33 32 31 28 26 24 23 24 26 27 27 27 27
23 22 21 19 18 20 22 21 21 18 13 13 14 15 18 23 28 32 34 34 32 27 21 17 15 14 13 13 13 13 12 11 12 13 14 16 17 16 18 21 23 24 26 27 28 30 33 34 34 34 33 31 29 27 24 23 23 24 27 29 31 32 34
25 23 22 20 19 20 21 21 21 18 14 13 13 15 20 27 32 35 35 32 27 21 16 13 12 12 12 11 12 11 10 10 11 12 14 16 16 16 18 21 25 29 30 30 30 32 34 35 34 31 29 28 27 25 23 21 21 22 23 25 27 29 31
26 25 24 22 21 21 21 21 19 15 13 14 15 16 22 31 36 36 33 28 21 16 13 12 11 11 11 11 11 11 10 11 13 14 15 16 16 17 18 21 25 28 29 30 31 34 36 36 32 28 25 25 26 25 22 21 21 21 21 21 22 23 24
27 26 25 23 22 21 21 20 18 15 14 15 16 17 24 33 37 34 28 22 17 13 11 10 10 10 10 11 11 12 13 14 15 16 16 17 18 18 19 20 21 23 26 30 32 34 35 35 35 33 29 25 25 24 22 22 22 23 24 24 24 24 25
28 26 25 23 21 20 21 19 17 15 16 17 18 20 27 34 34 30 23 18 14 12 10 9 9 9 10 12 14 15 17 18 19 19 19 20 20 20 21 21 21 22 26 30 32 34 35 36 37 36 32 28 27 28 28 27 26 26 27 27 26 25 25
29 27 24 21 19 20 20 19 18 18 20 21 22 26 31 32 29 24 19 15 13 12 11 10 10 10 11 13 15 16 18 19 20 22 23 24 24 23 24 23 23 24 28 32 33 35 36 36 35 35 33 32 31 31 30 29 26 24 24 24 24 24 22
29 27 22 18 17 18 19 20 21 21 21 24 26 28 29 27 24 20 17 14 12 11 9 8 8 9 10 12 14 15 16 18 19 21 24 25 26 26 26 25 24 26 29 32 33 34 34 32 31 31 30 29 27 26 26 26 24 23 24 24 24 25 24
25 24 20 17 16 18 21 22 21 21 23 25 27 27 26 24 21 18 15 12 10 7 5 4 6 6 7 9 11 12 14 16 18 20 22 24 25 27 28 26 26 27 30 31 32 31 30 27 25 24 24 23 23 23 23 22 22 22 24 25 25 26 26

ECMWFFLT1_850_spd_009.txt.gz
Wind_Speed
10 10 10 9 8 7 7 7 7 7 7 7 8 8 7 6 6 5 5 6 5 4 3 3 2 2 2 1 2 1 2 2 2 2 3 3 2 2 4 6 7 8 10 12 14 12 9 9 9 9 9 10 10 11 12 12 12 12 12 11 12 10 9
11 11 10 9 8 8 8 8 7 6 6 7 7 7 7 6 7 7 7 8 7 6 4 3 2 1 2 2 2 1 2 2 1 2 3 4 5 3 2 0 1 2 4 6 7 7 8 8 8 8 9 10 11 11 11 12 13 13 13 12 11 12 13
12 12 11 10 9 8 8 8 8 6 6 6 6 6 7 7 7 8 8 8 8 8 6 5 5 5 5 6 5 4 4 3 2 1 0 2 3 2 2 3 3 2 2 4 3 3 5 6 7 7 7 7 10 13 13 14 13 14 15 15 12 12 14
14 14 12 11 10 9 9 8 7 7 6 6 5 5 6 6 6 7 7 7 7 8 8 8 8 8 8 9 8 8 8 7 6 5 3 3 3 2 3 3 2 1 1 3 3 4 5 6 7 8 8 8 10 12 14 14 14 16 18 17 15 14 14
16 15 14 12 12 10 9 9 8 8 7 5 5 5 4 5 5 6 6 6 6 7 7 8 7 7 8 8 9 9 9 9 8 8 7 6 6 5 4 4 3 3 2 2 3 4 5 6 7 8 9 9 9 10 11 12 13 15 16 15 14 14 12
17 16 14 14 14 12 11 10 9 8 7 6 5 4 3 4 4 4 5 5 5 5 5 5 6 7 7 7 7 8 8 8 8 7 7 7 6 6 5 5 5 4 3 4 4 3 5 7 6 7 8 8 9 10 10 10 10 11 11 11 11 10 9
17 17 15 15 15 14 13 12 11 10 9 7 6 4 3 3 3 3 3 3 4 4 3 3 4 5 7 6 6 7 7 7 7 7 7 7 6 6 5 5 4 3 4 5 5 4 4 6 6 7 9 9 10 11 9 8 8 8 8 8 8 8 9
18 18 16 15 16 15 14 14 13 12 10 9 8 5 3 4 3 2 2 2 3 3 3 2 2 3 4 4 4 5 6 7 7 8 8 8 8 7 6 6 5 4 4 4 5 4 3 5 5 7 8 9 10 10 8 8 7 7 7 7 6 7 7
18 18 17 16 16 16 16 15 14 14 13 12 10 6 4 5 4 2 2 1 2 2 2 2 2 1 2 3 3 4 4 6 7 8 9 9 9 9 8 7 6 5 6 5 5 5 5 5 6 7 7 7 9 10 10 9 8 7 7 7 6 5 5
19 18 17 17 17 17 16 16 15 15 15 15 12 7 5 5 4 4 4 2 2 1 1 1 2 2 1 1 0 2 3 5 6 7 7 8 9 9 10 10 8 7 8 7 6 6 7 6 6 6 6 6 7 9 10 11 10 9 8 9 8 6 6
20 19 17 17 17 17 17 16 16 16 16 17 14 10 7 6 6 5 6 5 4 3 2 2 2 3 3 2 1 2 2 4 5 5 6 7 7 8 9 9 10 10 10 10 9 8 8 8 7 6 6 7 7 8 9 11 12 11 9 9 9 9 11
21 20 18 17 17 18 18 17 17 17 17 18 16 13 10 9 8 7 7 7 6 5 5 5 4 4 5 4 3 3 3 3 4 5 5 6 6 7 8 9 10 10 11 11 11 10 11 10 8 7 6 6 7 8 9 11 13 12 10 10 11 12 14
19 19 17 17 17 18 17 17 17 17 17 18 18 16 13 12 11 9 9 9 8 8 7 7 7 7 7 6 5 4 5 5 5 6 6 7 7 7 9 10 10 10 11 11 10 10 12 11 11 10 9 7 7 8 8 10 13 15 13 13 15 15 14
21 20 18 17 18 19 19 18 18 18 18 18 19 18 16 15 14 12 12 12 11 11 10 10 9 9 9 8 7 6 7 6 5 6 7 8 9 9 9 8 10 12 12 11 10 9 8 8 10 11 10 9 8 7 8 9 13 15 15 13 14 15 15
24 24 23 20 18 20 20 19 19 19 20 20 21 21 18 18 17 15 14 14 14 13 13 13 12 11 11 11 10 9 9 7 6 7 8 9 9 11 11 10 10 13 14 13 11 8 6 6 7 7 7 8 9 9 10 11 13 15 16 15 15 15 15
23 23 26 26 23 21 20 20 20 19 20 20 21 22 21 20 20 18 17 17 16 16 15 15 15 14 14 14 12 11 10 9 8 9 9 8 7 10 12 12 12 14 15 15 13 10 8 7 6 6 8 9 10 11 11 11 13 15 17 17 16 15 14
21 21 23 25 26 25 22 22 22 20 19 19 20 22 22 22 22 21 20 19 18 18 18 18 18 16 16 16 15 13 12 11 10 10 9 8 8 10 13 13 12 14 15 15 14 11 8 7 7 8 9 10 10 11 11 11 12 14 16 17 17 17 16
18 20 20 20 22 23 22 22 23 22 21 21 22 22 22 23 24 23 23 23 22 22 22 21 21 19 18 18 17 15 14 13 12 11 11 11 11 12 13 13 13 14 14 14 13 10 9 10 11 11 11 11 10 11 12 13 13 15 16 18 19 19 19
12 16 19 21 19 19 19 20 22 23 23 23 23 23 23 23 25 26 26 25 25 24 24 23 22 21 19 19 18 16 15 14 14 13 13 13 14 14 14 13 13 14 14 14 13 13 13 14 14 13 13 13 13 13 15 15 15 16 17 18 19 19 19
6 7 9 12 13 13 15 18 19 20 21 22 23 25 26 25 27 29 28 26 26 25 25 25 23 21 20 19 19 18 17 16 15 15 15 15 15 16 15 15 15 15 15 15 15 15 16 16 16 16 15 15 14 14 16 16 16 16 17 17 18 18 18
12 12 11 11 11 12 13 14 16 18 20 22 22 24 25 26 28 30 29 26 25 25 24 24 23 22 20 19 19 18 18 17 16 16 17 16 16 17 17 16 16 16 17 17 17 17 18 18 18 18 17 16 17 17 18 17 16 16 17 17 18 17 18
12 15 16 15 14 13 12 12 14 16 18 21 22 21 22 26 28 28 27 26 25 25 25 25 24 23 22 21 20 19 19 18 17 17 17 17 18 18 17 17 18 18 19 19 19 19 19 18 19 19 18 19 19 20 20 20 19 18 17 17 18 18 18
5 7 9 9 10 12 12 12 14 15 17 19 21 21 22 24 25 24 24 25 26 27 26 25 26 28 27 24 21 21 21 20 18 17 17 17 17 18 17 17 19 20 21 21 21 22 20 18 18 19 19 19 20 20 22 23 24 22 21 20 20 19 19
4 4 5 6 8 9 10 11 12 14 16 17 18 20 22 23 24 25 25 25 26 28 28 29 31 33 31 27 24 23 22 21 20 18 18 17 16 17 17 16 17 20 22 24 23 23 22 21 20 21 21 20 20 21 22 24 25 25 25 25 24 22 21
5 5 5 6 7 8 9 10 11 12 14 15 16 17 20 21 22 24 27 27 28 30 32 33 35 34 31 28 26 25 23 20 19 18 17 17 15 14 14 13 15 18 21 23 22 21 22 22 21 22 23 24 25 25 25 25 25 26 26 27 27 26 24
6 6 6 6 7 9 9 10 11 12 12 14 14 14 17 20 19 20 25 27 30 33 35 36 36 35 32 28 26 25 20 17 17 16 15 16 15 14 13 14 15 17 19 20 20 19 18 17 17 19 23 25 28 28 28 28 28 28 27 27 29 30 29
6 6 7 8 8 9 10 10 11 11 11 13 13 12 14 15 15 18 21 24 28 33 36 37 36 35 32 28 26 23 17 15 16 15 14 16 17 17 17 16 16 16 16 16 16 15 13 13 14 17 21 23 25 26 27 28 28 28 27 27 28 29 27
8 8 9 9 9 10 11 11 12 12 12 12 13 14 15 15 15 17 20 21 26 32 34 33 33 33 31 28 26 22 18 18 19 18 16 17 18 18 17 16 16 17 17 16 15 16 17 17 19 22 25 27 28 27 26 24 23 24 24 25 27 27 25
9 10 10 10 10 11 11 12 12 13 13 12 13 14 16 17 17 17 18 21 27 32 32 30 30 31 29 26 24 20 19 18 18 17 16 16 16 15 14 14 14 15 15 15 16 19 22 24 26 28 28 29 30 29 25 22 22 23 25 26 28 28 27
9 10 11 11 12 11 12 12 12 13 13 14 14 14 14 16 17 17 19 23 27 30 28 27 30 30 27 24 21 18 16 15 13 13 13 13 12 12 12 14 14 15 15 15 17 22 26 27 29 29 28 30 30 27 22 21 21 23 25 27 29 30 30
11 11 12 12 12 12 13 13 13 13 14 14 15 15 14 15 17 19 21 24 27 28 27 27 30 28 24 22 20 16 13 10 8 9 10 10 11 11 13 15 17 18 18 18 20 25 28 29 30 30 30 32 30 25 22 22 23 23 23 24 26 28 30
13 13 13 13 13 14 14 14 14 15 15 15 16 15 14 15 17 18 20 23 26 27 26 27 29 26 23 21 19 17 14 10 8 9 10 10 10 11 12 14 17 20 21 20 22 25 28 30 32 32 34 35 30 25 23 23 23 23 23 24 25 26 27
14 14 14 15 15 15 15 15 15 15 16 16 16 15 15 15 16 18 21 24 25 24 24 25 26 24 22 20 19 18 15 11 9 9 9 9 10 11 11 12 16 21 22 23 25 28 30 32 34 36 38 38 34 29 27 27 27 28 30 30 30 30 30
16 17 17 18 18 18 16 15 16 16 16 16 15 16 16 15 18 20 21 21 21 21 22 23 22 20 19 19 17 14 11 9 9 9 10 11 11 12 12 12 17 22 24 25 28 31 33 35 37 38 39 40 39 38 37 38 39 36 34 32 31 30 30
19 21 23 24 23 21 18 16 16 16 16 16 17 17 15 16 20 21 21 22 22 21 20 19 18 16 15 13 12 9 9 10 11 11 13 14 14 14 14 13 17 23 26 28 32 34 36 37 38 40 41 42 43 42 41 41 40 34 29 28 28 27 26
20 22 24 25 24 22 19 16 16 17 17 17 16 15 16 18 19 18 20 21 19 18 18 15 12 11 10 8 9 9 9 11 12 12 13 14 14 15 15 15 18 23 27 29 31 33 35 37 39 40 40 39 37 35 33 31 28 24 22 23 24 24 24
20 20 20 20 19 19 19 16 16 17 17 16 15 16 19 22 21 20 21 20 16 15 15 12 8 7 7 7 8 7 8 9 10 10 12 14 14 15 17 17 20 23 25 26 28 29 30 31 30 30 29 27 26 25 23 22 19 18 19 20 21 22 23

ECMWFFLT1_850_spd_015.txt.gz
Wind_Speed
19 20 18 16 15 14 14 14 13 13 11 11 12 12 13 16 15 14 13 12 12 11 9 9 7 6 5 5 6 5 5 6 6 6 6 6 6 6 6 8 9 8 8 7 6 6 5 4 4 3 3 4 5 5 6 9 11 11 9 8 6 2 2
18 19 18 17 16 15 14 14 13 12 11 10 11 10 11 15 16 14 12 11 10 11 11 10 9 8 7 7 8 7 6 6 7 7 7 7 6 6 7 7 7 6 4 4 3 3 4 3 2 2 1 2 2 4 5 6 8 8 8 8 7 3 1
19 19 18 17 16 14 14 15 14 13 13 12 12 11 11 14 16 14 11 9 8 10 11 11 10 8 7 7 8 8 8 8 8 8 7 8 7 7 7 7 7 7 6 5 5 4 3 2 2 2 1 2 2 2 2 3 4 6 7 7 7 6 5
19 18 17 17 15 14 15 15 14 14 13 13 12 12 13 13 14 13 9 8 9 12 13 11 11 10 10 9 8 8 9 9 8 6 6 7 7 7 7 8 8 8 7 6 5 4 3 2 2 3 4 5 5 4 4 4 5 6 6 5 5 5 4
17 16 15 15 14 14 15 15 15 14 14 13 13 13 13 13 13 11 10 10 11 13 13 12 12 11 11 11 10 9 9 8 7 6 5 5 6 6 7 8 8 8 7 6 6 6 5 5 5 5 6 6 6 7 6 5 3 2 5 6 5 3 4
15 15 13 13 13 13 15 16 15 15 14 14 13 12 13 12 12 12 11 10 10 10 10 10 10 10 10 10 10 9 9 8 7 6 5 5 4 3 3 4 5 5 5 6 5 5 5 6 5 4 4 5 5 4 3 2 2 3 4 7 7 3 3
16 15 13 12 13 13 15 16 15 15 14 14 13 12 12 12 12 11 11 10 9 8 8 8 8 8 8 8 7 7 6 6 5 4 4 4 3 3 2 2 1 2 1 1 1 2 3 4 5 5 4 4 5 3 3 3 3 3 2 5 5 4 4
15 15 13 12 12 12 14 15 15 15 14 14 14 13 12 11 11 11 10 9 9 8 7 7 7 7 6 6 6 5 5 6 5 4 4 4 4 3 3 3 3 3 3 3 3 3 3 3 5 6 6 6 5 4 2 3 4 5 3 3 2 2 4
15 15 15 13 12 11 11 13 13 13 13 13 13 12 12 11 11 11 10 9 9 8 7 6 6 6 5 5 5 5 5 6 6 6 6 5 5 5 5 4 4 4 4 4 3 3 3 3 3 3 4 5 6 6 5 3 2 4 4 3 3 3 3
16 16 16 14 13 11 10 10 10 10 11 11 11 10 11 10 10 10 9 9 8 7 7 6 5 5 4 4 4 5 5 5 6 6 6 6 6 6 5 5 5 5 5 3 3 3 3 2 2 2 2 2 4 5 6 7 5 2 3 5 6 5 5
18 16 14 14 13 12 11 10 9 8 7 8 8 7 8 8 7 7 7 7 7 7 6 6 5 5 4 3 3 3 4 5 5 5 5 5 6 5 5 5 5 5 5 4 2 2 2 2 3 3 3 3 4 5 6 8 8 5 3 4 6 8 9
18 16 14 12 12 12 11 10 9 7 6 5 5 5 4 4 4 4 4 4 4 4 5 5 5 4 4 3 3 2 2 3 3 3 4 4 4 3 3 3 4 4 5 4 4 4 3 3 4 5 6 5 5 5 5 8 9 7 6 7 7 8 10
16 16 14 12 11 11 11 10 10 8 6 5 4 3 3 2 1 0 0 0 1 1 2 2 3 3 3 3 3 3 2 2 3 2 2 2 2 2 1 1 2 2 3 4 5 6 6 5 4 4 5 5 4 5 5 8 10 10 10 12 11 10 9
17 16 14 13 12 11 11 11 10 9 7 6 5 4 4 3 3 4 3 3 3 4 5 5 5 5 5 4 4 4 4 4 3 3 3 3 2 3 3 3 2 1 1 2 4 6 6 6 5 4 4 4 4 5 7 8 12 15 14 13 13 12 11
17 16 13 13 14 14 13 12 11 9 8 7 6 5 6 6 6 6 6 6 6 6 7 8 8 9 9 9 8 7 7 6 5 4 4 4 3 3 4 4 3 2 0 1 3 5 6 6 5 4 5 5 5 6 9 11 13 16 16 14 14 13 13
18 17 14 14 17 18 16 15 14 12 11 9 9 8 8 9 9 10 10 9 9 9 9 10 11 12 12 12 12 12 10 9 8 8 7 6 5 5 5 6 6 5 4 2 3 4 5 5 5 5 6 7 8 8 10 12 13 15 17 17 16 16 17
21 20 17 15 17 18 17 16 15 14 13 12 12 11 11 11 11 11 11 11 11 12 13 13 13 13 14 15 15 15 14 12 11 11 10 9 9 9 7 7 7 7 6 5 5 5 7 7 7 8 8 9 11 11 12 12 13 15 18 19 18 18 18
23 21 18 16 17 18 19 18 17 16 16 15 15 15 15 15 14 13 12 11 11 14 15 16 16 15 16 17 17 17 17 15 14 14 14 12 12 12 11 9 8 9 8 7 7 7 7 8 8 9 11 12 13 14 14 14 14 16 17 19 19 18 18
21 20 19 20 21 21 21 21 20 19 18 18 17 18 18 19 18 18 16 14 13 15 16 15 17 18 19 19 19 19 20 19 17 17 17 15 15 15 13 11 10 10 10 9 8 8 8 8 9 10 11 13 14 15 15 15 16 16 17 18 19 18 18
18 17 18 21 21 19 19 20 21 20 20 20 20 21 22 23 23 22 19 16 16 18 18 16 18 22 23 23 23 22 22 21 20 20 19 18 17 16 15 13 12 12 11 10 10 10 10 10 10 11 13 14 15 16 16 16 16 16 17 18 18 19 19
16 16 17 20 20 19 20 19 18 18 18 17 17 17 19 21 23 23 23 22 20 20 21 21 22 25 26 27 26 25 24 23 22 21 21 20 19 19 17 15 15 14 13 12 11 11 11 11 12 14 15 16 16 16 16 16 17 17 17 18 18 19 20
14 14 15 16 18 19 18 17 16 15 14 14 14 14 14 15 16 18 21 23 22 23 25 27 26 26 27 28 28 27 26 25 23 23 22 21 21 20 19 17 16 15 14 13 13 12 12 12 14 15 16 17 17 17 16 16 16 17 17 18 19 20 21
10 10 10 11 12 12 12 12 13 12 11 12 12 12 12 11 12 14 17 20 22 24 27 28 27 27 28 29 28 27 26 26 25 25 24 23 23 22 21 19 17 16 15 15 14 14 13 14 15 16 17 18 18 18 17 17 16 17 18 18 19 20 22
9 7 7 7 6 5 5 6 6 5 5 7 7 9 9 9 10 12 14 15 18 20 23 24 25 27 29 30 29 28 27 27 27 27 26 25 25 23 21 20 18 16 17 17 16 14 14 16 17 17 18 19 19 18 18 18 19 20 21 22 22 22 23
8 7 7 7 5 4 4 4 3 2 3 4 5 6 7 8 9 10 12 13 15 16 18 19 21 25 29 31 31 31 29 28 29 29 29 27 26 23 21 19 17 18 20 19 17 16 16 18 18 18 19 19 20 19 19 20 22 23 24 25 25 25 25
7 8 9 9 8 8 8 6 5 4 5 5 6 7 8 8 9 11 12 13 14 15 17 18 19 22 26 28 31 32 31 30 30 31 30 29 27 23 20 18 18 20 22 20 18 18 19 20 20 20 20 20 20 21 22 23 24 25 26 27 28 27 25
8 10 10 10 10 9 9 8 7 7 6 7 8 8 9 11 12 13 14 14 15 16 17 18 20 21 22 24 27 30 31 32 32 31 30 28 24 20 18 18 19 20 20 19 19 20 21 21 21 20 21 21 21 22 23 25 26 27 28 28 29 29 27
10 10 9 8 7 7 7 8 8 9 9 9 9 9 10 11 11 12 13 14 14 15 15 16 17 19 20 21 24 27 29 31 32 31 27 23 19 18 18 17 17 17 17 18 20 21 21 20 20 21 21 22 23 24 25 26 28 29 30 30 30 29 28
11 11 10 7 5 4 4 4 5 6 8 9 10 10 11 12 12 13 14 15 15 14 14 13 14 15 16 18 20 23 25 29 32 30 24 19 17 17 16 16 16 16 17 18 19 19 19 19 19 20 20 21 23 25 26 28 29 30 31 31 30 30 29
10 9 8 6 3 2 3 4 4 4 5 6 8 9 10 11 12 13 15 16 16 15 15 14 14 14 15 15 17 21 25 28 30 25 19 17 17 17 15 16 17 17 18 18 18 18 19 19 20 21 22 23 25 27 28 29 31 31 32 32 31 31 31
9 8 7 6 6 6 7 6 6 6 6 7 7 9 10 12 13 14 15 16 17 17 16 15 15 15 16 16 17 21 25 27 25 20 16 15 16 15 15 16 16 17 18 18 18 19 20 21 22 23 25 26 28 29 30 32 33 34 34 34 34 34 35
8 9 9 9 10 11 10 9 9 8 8 9 9 9 11 12 14 16 16 16 17 18 17 16 16 17 17 17 18 21 25 26 24 20 16 14 12 13 15 15 15 16 16 17 18 20 21 23 24 25 26 28 30 31 32 34 36 37 38 39 39 39 39
10 12 13 13 13 12 12 12 12 12 12 11 10 10 12 14 16 17 17 17 18 18 18 18 18 18 18 18 20 22 25 24 22 20 17 15 13 13 14 14 14 16 17 18 20 21 22 23 24 26 28 30 32 34 35 37 38 39 40 40 39 38 37
13 13 13 13 13 14 15 16 17 17 16 14 13 11 13 16 18 19 19 19 19 19 18 18 18 18 18 19 20 22 22 20 17 17 17 16 15 16 17 18 18 19 20 21 21 22 23 25 27 28 30 32 34 35 36 37 37 35 34 32 31 31 30
15 15 15 15 16 18 19 19 20 20 19 17 14 13 15 18 20 21 22 22 22 21 19 18 18 18 18 19 20 20 17 15 15 16 18 18 18 19 20 21 21 22 22 22 23 24 25 27 28 30 31 32 32 32 31 30 28 26 25 25 26 27 26
16 16 17 17 18 20 21 22 22 22 20 18 15 14 16 19 20 22 23 24 23 21 18 17 16 16 17 18 18 16 13 13 16 18 19 19 19 20 22 23 23 23 22 23 24 25 26 27 28 29 28 27 26 25 23 21 20 20 21 22 23 24 24
19 19 19 19 20 22 23 24 24 22 21 17 14 15 18 20 21 22 23 22 20 17 15 14 15 15 15 16 15 14 14 15 17 19 20 20 21 21 21 20 19 19 19 20 22 23 24 25 24 23 22 22 21 21 20 19 19 20 21 22 23 24 24

ECMWFFLT1_850_spd_021.txt.gz
Wind_Speed
3 3 5 8 9 10 9 8 6 5 5 5 5 5 5 5 2 2 4 6 5 4 4 2 1 1 1 1 1 2 3 5 7 8 8 8 8 9 9 9 9 9 7 6 6 5 4 4 4 4 3 3 4 4 4 3 2 1 1 1 2 5 7
6 5 5 7 8 9 9 8 7 6 6 5 5 5 5 4 2 3 5 5 5 4 4 3 2 1 2 2 2 1 1 1 0 3 4 3 3 5 6 7 8 9 8 8 6 6 6 6 6 5 4 5 4 4 4 3 3 3 1 1 2 3 6
8 7 7 8 7 8 7 7 6 6 7 6 6 5 5 5 3 3 3 3 3 3 3 3 3 4 5 6 6 4 1 2 3 3 4 4 2 1 3 4 4 6 6 6 6 5 5 5 5 5 4 4 3 2 1 2 3 4 3 3 5 4 5
8 8 8 8 6 6 6 6 6 6 7 7 6 5 6 5 3 2 2 1 1 2 2 2 3 4 5 5 4 2 1 3 4 5 5 5 4 3 3 3 2 2 2 2 2 2 3 3 3 3 3 3 2 2 1 1 2 3 3 3 3 2 3
9 8 8 6 5 6 6 6 7 7 6 6 7 7 7 7 4 2 1 2 2 2 3 3 4 4 4 3 3 4 4 4 4 4 3 3 3 3 3 3 3 3 2 2 2 2 2 3 3 3 3 2 1 3 4 3 2 1 1 1 2 2 2
9 9 8 6 5 5 6 6 6 6 6 6 6 7 8 7 4 3 5 7 8 9 8 8 8 9 9 9 8 7 6 5 5 4 4 4 4 3 3 3 3 3 2 2 1 1 2 2 2 3 2 1 3 5 7 6 5 4 2 3 4 3 2
8 10 9 6 5 5 5 5 5 5 5 5 6 7 7 7 6 7 9 10 10 10 9 8 8 9 9 9 8 7 7 6 5 5 5 4 4 4 3 3 2 1 0 1 1 1 2 2 2 3 3 1 2 6 8 7 6 4 3 3 2 2 2
9 12 11 8 6 6 6 6 6 6 6 6 7 8 9 9 9 9 9 9 9 9 8 7 7 7 8 8 7 6 6 6 5 5 5 4 4 4 3 3 3 2 2 3 3 3 3 3 3 4 4 3 2 4 6 6 5 4 3 2 2 2 3
13 16 14 11 8 7 8 7 7 7 7 8 8 9 9 9 9 8 8 8 8 8 7 7 7 8 8 8 7 7 6 6 6 5 5 5 5 5 4 4 3 3 4 4 4 4 4 5 5 6 6 5 3 3 3 3 3 3 4 4 5 6 6
17 18 15 12 11 10 10 9 8 8 9 9 9 9 9 9 8 8 8 8 8 8 8 8 8 9 9 9 9 9 8 8 8 7 7 7 7 6 6 5 4 5 6 6 6 6 7 7 8 9 9 8 7 6 4 2 1 1 3 5 6 7 7
19 17 13 11 12 12 12 11 10 10 9 9 10 10 10 10 9 9 9 9 9 9 9 10 10 10 10 10 10 10 9 9 9 9 8 8 8 8 7 6 6 6 7 8 8 8 9 9 9 10 10 11 11 10 9 8 6 5 7 8 8 9 9
21 17 12 11 12 15 15 14 13 11 10 10 10 10 10 10 9 9 9 9 9 9 10 10 11 11 11 10 10 9 8 8 8 7 7 6 6 6 6 6 6 6 6 7 7 8 8 8 9 9 10 11 11 11 11 11 10 9 10 11 12 12 12
23 18 15 13 13 14 15 14 14 12 11 11 11 11 10 9 9 8 8 8 8 8 8 9 9 9 9 8 8 7 6 5 5 4 4 4 3 3 3 3 3 3 4 4 5 5 6 7 7 7 8 9 10 11 11 11 11 11 11 12 13 14 14
23 19 18 15 12 14 15 15 14 12 11 12 11 11 11 9 9 8 7 7 6 6 6 6 6 6 6 7 6 6 5 4 3 2 2 1 1 1 0 0 0 1 2 2 2 2 3 4 4 5 6 7 8 9 10 11 12 12 12 12 13 13 14
23 20 19 16 13 16 18 15 14 13 12 11 11 11 10 9 9 8 8 7 7 6 6 5 5 5 5 5 5 5 5 5 4 4 3 4 4 3 3 3 3 3 3 3 3 1 0 1 2 3 4 5 6 7 8 10 11 12 13 12 13 13 13
24 21 20 18 16 17 18 15 14 15 14 13 13 11 10 9 9 8 8 8 8 7 7 7 7 7 6 6 6 6 6 6 6 6 6 6 7 6 5 5 5 5 5 5 5 4 3 2 2 3 4 5 7 8 9 10 11 13 14 14 14 15 15
25 23 22 21 19 20 20 16 15 15 15 16 17 15 13 12 10 9 9 8 9 9 8 8 8 8 7 7 7 7 7 7 7 8 8 8 9 8 7 6 6 5 6 6 6 5 4 4 4 5 6 7 8 9 10 11 12 13 14 15 15 16 17
26 25 23 22 22 25 25 21 18 17 16 17 18 16 15 14 13 12 11 10 10 11 11 10 10 9 9 8 8 8 8 9 9 9 9 10 10 10 9 8 8 7 6 7 7 6 6 6 6 7 8 9 10 11 11 12 12 13 14 15 15 16 17
25 25 24 23 23 25 26 24 22 21 19 19 20 19 17 16 16 16 15 14 14 14 13 13 13 12 11 11 10 10 9 10 10 10 10 10 10 10 10 10 10 9 8 8 8 7 7 7 7 8 9 10 11 12 12 13 13 13 14 15 15 16 17
22 24 24 22 23 25 25 25 25 26 25 23 23 22 21 21 19 19 20 20 19 17 16 16 16 15 15 14 14 13 13 13 13 14 13 13 12 12 11 11 12 11 10 10 10 9 8 8 7 8 9 10 11 12 13 14 14 14 14 15 16 16 17
21 23 23 23 25 27 27 27 27 29 29 27 25 25 24 24 22 20 21 22 22 21 20 19 18 17 17 17 18 17 17 16 16 17 18 17 16 15 14 14 13 13 12 11 11 11 10 9 9 9 9 10 11 12 13 14 14 14 15 15 16 17 17
22 23 24 25 27 29 31 30 29 31 32 29 27 26 25 23 22 21 21 21 22 23 22 20 21 21 20 20 21 21 21 20 19 19 20 21 20 19 18 17 16 15 14 14 13 12 12 11 11 11 11 11 11 12 14 15 16 16 16 16 16 17 18
23 24 26 27 27 29 31 30 26 28 30 27 25 25 25 23 23 23 21 20 21 21 20 20 21 21 20 21 22 23 23 23 22 21 20 22 23 22 21 20 18 17 17 16 16 15 13 13 12 12 13 12 13 13 14 16 17 18 18 18 18 19 19
22 22 23 25 25 26 28 27 25 26 29 25 20 20 23 24 24 22 20 19 18 17 17 17 16 16 17 20 22 23 24 23 22 20 20 21 23 23 22 22 21 20 20 19 19 17 15 14 14 14 14 14 14 15 16 17 19 20 20 21 21 22 22
18 18 19 19 21 22 24 23 23 23 24 21 14 12 16 19 19 18 17 15 13 12 12 12 11 12 14 16 18 20 20 19 18 18 19 19 20 21 22 23 24 23 23 22 21 19 17 16 15 15 15 15 15 16 17 19 21 22 23 23 23 24 24
15 15 15 15 17 18 19 18 18 17 15 13 9 9 11 12 12 12 11 10 9 10 10 10 10 11 12 13 15 16 17 17 17 17 16 16 17 18 20 23 24 25 24 24 22 20 18 17 16 15 16 16 16 17 19 20 22 23 24 24 24 25 26
13 13 13 14 15 16 15 15 14 13 12 10 9 9 8 8 8 8 7 8 9 9 10 11 11 12 12 13 14 15 16 17 18 18 17 16 16 16 17 20 24 25 26 25 22 19 18 17 16 16 16 17 18 19 21 22 22 23 24 24 25 26 27
12 12 13 14 14 14 14 14 13 12 12 11 9 9 9 9 9 9 9 9 10 11 11 12 12 12 11 12 12 13 14 16 17 18 18 17 16 15 15 18 22 25 25 23 21 19 17 16 17 17 17 18 20 21 23 23 23 24 24 24 25 26 28
13 13 13 14 14 13 13 13 13 12 12 11 11 10 10 11 11 11 11 12 13 13 13 13 13 12 11 12 12 12 13 13 14 15 16 17 16 15 15 17 20 23 24 23 22 21 19 18 18 18 18 20 22 23 24 24 24 24 25 25 26 27 29
14 13 14 14 14 14 14 13 13 13 12 12 12 12 12 13 13 13 13 13 13 13 12 12 12 11 11 11 11 12 12 12 12 12 13 14 14 13 14 16 19 22 24 24 23 22 20 18 18 19 20 22 23 23 23 24 24 25 26 27 28 30 31
14 13 14 15 15 15 14 13 13 12 12 12 11 12 13 13 14 14 13 13 13 12 11 12 12 12 12 12 12 12 12 13 13 12 11 11 11 11 12 15 19 22 23 22 21 20 19 18 19 21 22 23 22 22 23 24 25 26 27 28 30 31 32
12 12 13 15 16 15 15 14 12 10 10 10 10 10 10 10 11 12 13 14 14 14 14 14 14 14 13 13 13 12 13 13 13 12 12 11 10 11 12 16 19 20 20 19 19 19 19 20 21 22 23 23 23 23 24 25 26 28 30 31 32 33 33
13 13 13 14 14 14 14 14 13 10 8 9 9 9 9 9 10 11 12 14 15 15 16 16 15 15 14 14 14 13 13 13 13 12 11 10 10 12 14 16 18 19 19 19 19 20 21 21 22 23 23 24 24 25 26 27 29 32 33 34 34 35 35
13 14 14 13 12 12 13 13 12 10 9 10 10 11 11 12 13 13 12 13 14 16 17 17 17 17 16 16 15 14 14 13 12 11 11 11 12 13 14 16 17 18 18 19 19 20 21 21 22 23 24 25 26 27 28 30 31 33 33 34 34 34 34
12 13 14 13 13 12 13 13 13 12 11 11 12 13 13 13 14 15 15 15 15 16 17 18 18 17 16 16 16 15 14 14 13 12 12 12 13 14 15 16 17 18 18 19 19 20 21 21 22 23 25 26 27 28 29 30 31 32 32 33 34 34 34
16 16 15 15 14 13 13 13 13 12 12 11 11 12 13 14 15 17 18 17 16 16 16 17 17 15 15 15 15 15 15 14 14 14 14 14 14 15 17 17 17 17 18 18 19 20 21 22 23 25 26 26 27 28 29 30 31 31 32 33 33 33 33
20 19 18 17 16 15 15 15 14 14 13 13 13 13 14 16 17 19 20 19 16 16 16 15 15 14 13 14 14 15 15 15 15 15 15 15 15 16 16 16 15 16 17 18 19 21 22 23 23 23 24 25 26 27 28 29 30 30 31 31 31 32 32

ECMWFFLT1_850_spd_024.txt.gz
Wind_Speed
4 5 6 7 7 7 7 7 6 4 2 1 2 2 2 2 2 1 1 0 2 1 2 3 3 4 4 4 3 2 1 1 2 5 6 6 6 6 6 6 5 4 3 3 4 5 5 6 6 4 2 1 1 2 2 3 3 3 3 5 6 7 8
5 6 6 6 6 7 8 7 6 4 3 1 1 2 2 1 1 1 1 1 2 2 2 4 3 3 3 3 4 4 5 5 3 1 2 2 3 3 4 5 4 3 3 4 5 4 3 4 6 5 4 2 1 1 2 3 3 3 4 5 7 8 9
6 6 6 6 6 7 7 7 6 4 3 2 2 2 1 0 2 3 3 2 2 1 1 2 1 0 0 1 1 2 3 5 7 7 6 6 5 4 4 4 3 2 2 3 3 3 2 3 5 7 6 4 3 3 2 0 0 1 2 3 4 5 6
6 8 8 7 7 8 7 7 6 5 4 3 2 1 1 2 2 3 3 2 2 1 2 1 0 1 2 2 2 4 6 7 8 9 9 9 8 7 7 7 6 5 5 4 4 4 4 4 5 7 7 4 4 5 5 4 3 3 3 3 3 3 4
6 8 9 9 9 9 8 7 6 5 4 3 2 1 2 2 1 2 2 1 2 4 4 4 4 3 3 4 6 8 8 8 8 7 7 7 8 8 8 8 8 6 5 5 4 3 3 3 3 5 5 5 5 6 6 5 4 3 3 3 4 4 4
5 7 8 8 9 9 8 6 6 4 3 3 2 1 2 2 1 2 2 4 7 8 9 9 9 10 10 10 10 10 9 9 7 6 6 7 8 9 9 8 7 6 5 4 4 3 3 3 3 3 4 6 7 8 7 6 5 4 3 3 4 4 4
7 5 3 4 5 7 7 5 4 3 2 2 1 1 2 2 1 2 5 8 9 9 9 10 10 11 11 11 11 11 10 10 9 8 8 8 9 9 9 9 8 7 6 6 5 5 5 5 5 4 4 6 7 8 7 6 4 2 1 1 3 4 5
8 6 4 3 3 5 6 4 3 2 1 1 1 3 5 5 4 5 6 7 8 8 8 8 8 9 10 10 10 10 9 10 9 9 9 8 8 9 9 9 9 9 9 9 9 9 8 8 7 6 5 5 7 8 7 6 4 2 1 2 4 6 7
11 9 7 7 5 5 4 3 2 1 0 0 2 5 6 7 7 7 6 5 6 6 6 7 8 9 10 10 10 10 10 11 10 10 10 10 10 10 10 11 11 11 11 11 11 11 11 11 10 10 8 5 5 7 8 5 4 3 2 3 5 6 8
16 13 11 9 8 6 5 4 3 2 1 1 2 4 6 7 7 7 6 5 4 5 6 8 8 10 11 12 12 12 12 13 13 12 12 12 11 11 11 11 11 11 12 12 12 12 11 12 12 11 10 9 7 6 7 6 3 1 2 3 4 5 7
18 17 15 11 9 8 7 5 4 3 2 2 2 2 4 5 6 7 6 5 4 5 6 8 9 10 11 12 13 13 13 14 13 13 13 12 12 11 11 10 10 10 11 12 11 11 11 11 11 10 10 10 9 8 8 7 4 2 3 4 4 5 7
20 18 16 11 10 12 11 9 7 5 4 3 2 2 2 3 4 5 5 5 4 4 4 6 7 8 9 9 10 11 12 12 11 11 12 11 10 10 9 9 8 8 9 9 9 9 9 9 9 9 9 9 8 8 7 6 5 5 5 7 7 8 9
23 19 17 13 13 16 16 13 11 8 6 5 4 3 3 2 2 3 4 4 3 3 2 3 4 5 6 6 6 7 7 8 8 7 8 8 8 7 6 6 6 5 5 5 5 6 6 6 7 7 8 8 9 9 9 8 8 8 8 9 10 10 11
25 21 18 15 14 16 17 16 14 11 9 7 6 5 4 3 3 3 3 4 4 4 3 2 2 2 3 3 3 3 3 3 4 3 3 3 3 4 4 4 4 4 4 3 3 3 2 3 4 5 6 8 9 10 10 10 10 10 11 11 11 12 12
27 24 21 18 16 17 18 17 16 14 12 10 9 7 6 5 5 4 3 3 3 3 3 2 2 1 0 0 0 0 1 1 1 1 1 2 2 1 1 0 1 2 2 2 2 1 1 1 2 3 5 7 8 9 9 10 11 11 11 12 12 13 14
27 25 24 21 19 18 19 18 17 16 15 12 10 9 7 6 6 5 5 4 3 2 2 2 2 2 2 3 3 3 3 3 4 4 4 5 5 4 4 3 3 3 2 3 3 3 3 2 2 3 4 5 6 7 8 9 10 10 11 12 13 14 15
24 24 24 22 21 20 19 19 18 18 17 14 12 11 9 8 8 8 7 6 5 4 4 4 3 3 3 4 5 5 5 5 5 5 6 6 6 6 6 5 5 5 4 4 4 4 4 4 4 4 4 5 6 7 8 9 10 10 11 12 13 14 14
21 22 22 22 22 21 20 18 19 19 17 15 14 14 13 12 11 11 10 9 8 7 7 6 6 6 6 6 6 7 6 6 6 5 5 6 7 7 8 8 8 7 6 6 5 4 4 4 5 5 4 5 6 7 9 10 11 11 11 12 13 14 15
21 21 21 21 21 21 20 19 20 21 18 16 16 16 15 14 13 13 13 12 12 11 10 9 9 10 9 8 9 9 8 8 7 6 6 6 7 8 9 9 10 9 8 7 6 6 6 6 6 6 5 6 7 9 10 11 11 12 13 14 14 15 16
23 22 21 21 21 21 20 20 22 23 20 18 18 18 17 16 15 15 15 15 15 14 13 12 12 13 12 11 11 11 11 11 11 9 8 8 10 10 11 11 11 11 10 9 7 7 8 8 8 8 8 8 9 10 10 11 11 12 14 15 16 16 17
22 23 22 21 21 22 22 22 22 23 23 22 21 21 20 18 17 18 18 17 17 17 17 16 16 16 15 13 13 14 15 15 15 14 12 11 12 13 14 15 14 13 12 11 9 9 9 9 10 10 10 10 10 11 11 11 12 13 15 15 16 17 17
19 21 21 21 22 24 24 22 22 23 24 24 25 25 23 22 20 21 22 21 20 20 19 19 19 17 16 15 16 17 18 18 19 17 15 15 15 15 16 18 17 16 16 14 13 12 11 10 11 12 12 12 12 13 12 12 13 14 15 15 16 16 17
19 18 18 20 23 25 24 22 22 24 24 25 27 28 27 27 24 23 24 23 22 21 20 20 19 17 17 17 18 18 19 19 20 20 18 18 18 18 17 18 18 18 19 17 15 15 14 12 13 13 13 13 14 14 14 14 15 15 15 15 16 17 18
19 19 17 19 22 24 23 22 23 25 25 25 27 28 28 28 27 28 26 22 22 22 19 17 18 17 17 17 17 17 18 18 20 20 20 20 20 18 17 17 17 17 18 18 18 18 17 16 16 15 15 15 15 16 15 15 16 17 16 17 17 18 20
16 18 19 20 22 24 24 24 24 23 23 24 25 25 25 24 24 27 27 22 21 20 16 13 14 14 14 13 13 13 14 15 16 17 17 18 18 17 16 16 16 17 19 20 20 20 19 18 18 17 17 17 18 18 18 17 18 18 18 19 19 20 22
15 17 18 20 21 21 21 21 20 19 20 21 18 14 15 16 15 17 20 19 17 15 12 10 9 9 9 9 10 11 12 13 14 14 15 15 16 16 16 17 17 18 19 18 19 20 20 20 19 18 18 19 19 19 18 18 19 19 19 20 21 22 23
16 16 17 17 17 16 15 15 15 15 16 14 8 6 9 10 9 10 12 13 11 10 9 8 7 6 7 8 9 10 11 11 12 12 13 14 15 16 17 17 17 18 17 16 16 19 22 22 20 19 19 20 19 18 18 19 19 20 20 21 22 23 25
12 14 15 15 15 14 14 13 11 10 10 7 6 7 7 7 8 8 9 8 8 7 7 7 6 6 7 8 9 9 9 9 10 10 10 11 12 13 14 15 16 16 16 15 15 18 21 22 21 21 20 19 19 18 19 19 20 20 21 22 23 24 25
9 10 12 12 12 12 11 11 9 8 8 8 8 8 7 7 8 8 8 8 8 8 8 8 8 8 8 8 8 8 8 8 9 9 9 9 9 10 11 12 13 14 14 13 13 15 19 21 22 22 20 19 19 19 19 20 21 22 23 24 25 26 27
9 9 10 10 10 10 9 9 9 9 9 9 9 9 9 9 9 9 9 9 9 9 9 9 9 9 8 8 7 7 7 8 8 8 9 9 8 9 9 10 10 11 10 10 11 15 19 21 21 20 19 19 19 19 20 21 22 24 25 26 27 28 29
9 9 10 9 10 10 10 10 10 10 10 10 9 10 10 9 9 9 10 9 10 10 10 9 9 9 9 8 8 8 8 8 9 9 9 9 9 8 8 8 7 6 6 8 12 16 18 19 20 20 19 18 18 19 21 22 23 24 26 27 29 30 31
10 9 8 8 10 12 11 11 11 11 11 11 11 11 10 9 8 7 7 8 9 9 10 10 10 10 10 11 10 10 9 9 9 9 10 10 10 9 8 7 6 5 6 10 14 17 19 20 20 19 17 17 18 20 21 22 23 25 27 28 29 30 31
15 12 9 9 11 13 12 11 11 11 10 10 10 10 8 7 7 6 6 6 7 9 10 11 12 12 13 13 13 12 11 10 10 10 10 10 10 9 8 7 7 8 10 13 16 18 18 18 18 17 17 18 19 20 22 24 26 28 29 30 31 31 32
17 18 17 16 15 15 13 12 11 11 10 9 9 8 7 6 6 6 6 6 6 7 9 11 12 13 14 14 14 12 11 10 9 10 9 9 8 8 7 7 8 9 11 13 15 17 17 17 17 17 18 19 20 22 24 27 29 30 31 31 31 32 32
17 18 20 21 20 19 17 16 15 14 13 12 10 9 8 7 6 6 6 7 8 9 10 11 11 11 11 11 11 11 10 9 8 8 8 7 7 7 8 8 9 11 12 14 15 16 16 16 16 17 19 20 22 25 27 28 29 30 30 30 31 32 31
16 17 18 20 20 20 19 18 17 17 16 15 13 12 11 10 9 9 9 10 10 12 13 13 12 11 11 10 9 8 8 7 7 7 7 7 8 8 9 10 12 13 14 15 15 15 15 15 16 19 21 23 25 26 27 27 28 29 29 30 30 30 30
18 17 16 16 17 18 17 17 16 15 14 13 12 12 12 11 11 11 11 12 12 13 14 14 12 12 11 10 9 7 7 7 7 7 7 8 9 9 10 11 13 14 15 15 14 14 15 16 18 20 22 23 24 25 25 26 27 28 28 28 29 30 30

ECMWFFLT1_850_spd_027.txt.gz
Wind_Speed
7 8 8 7 7 7 7 7 7 6 4 3 3 3 2 2 2 3 4 6 6 4 4 3 3 3 3 3 3 3 3 4 4 5 6 7 11 12 12 12 10 8 8 8 9 10 10 10 8 5 4 2 1 2 2 1 0 1 2 4 5 6 8
7 8 8 7 7 6 7 7 7 6 5 3 3 2 3 4 4 4 6 7 5 5 5 5 5 4 5 5 5 5 5 5 6 6 6 7 9 10 11 10 9 8 8 9 9 9 11 12 10 8 8 5 3 5 5 3 3 2 4 5 6 7 8
7 8 8 7 6 6 6 6 6 6 5 4 3 4 5 6 5 5 5 5 5 4 3 3 3 3 3 4 5 5 6 7 7 7 7 8 8 9 10 9 8 8 8 9 10 9 10 11 11 11 10 7 6 8 7 5 5 4 4 5 6 7 8
6 6 6 5 6 6 6 6 7 7 6 5 5 6 7 7 6 5 5 4 3 2 1 2 2 3 4 4 5 6 7 8 9 9 9 9 10 10 11 11 9 9 8 8 9 9 10 11 13 14 12 9 9 9 8 6 5 4 4 4 5 6 8
4 3 3 4 5 6 7 7 7 7 6 6 7 8 9 7 6 5 4 3 3 2 1 1 1 2 4 5 7 8 9 10 10 10 10 10 10 11 12 12 11 10 9 9 9 9 10 12 13 15 14 12 11 10 9 7 5 4 4 4 4 5 6
4 2 2 3 4 5 6 7 7 6 6 6 8 9 9 7 6 6 6 6 6 5 5 4 5 6 7 8 9 9 9 10 9 9 8 9 10 11 12 12 11 10 9 9 8 8 9 11 12 13 13 12 10 10 9 6 5 4 3 3 4 4 5
4 3 3 3 3 3 4 5 4 5 5 5 7 8 8 7 7 8 10 10 10 9 8 8 9 10 10 9 9 9 9 9 10 10 10 11 12 12 12 11 11 10 9 9 9 8 9 9 9 10 11 12 11 9 8 7 5 3 1 1 3 4 5
5 4 5 3 3 4 3 3 3 5 5 5 6 8 8 7 8 9 10 10 10 9 9 9 10 10 10 10 10 10 10 11 11 11 12 12 12 13 13 12 12 13 13 13 12 12 11 10 9 8 9 11 12 10 8 6 5 2 0 2 3 5 6
8 7 7 4 5 4 0 1 2 5 5 5 6 7 8 8 8 9 9 9 9 8 9 10 10 10 9 9 9 10 11 12 11 11 12 12 13 14 14 14 15 15 15 15 14 13 12 11 10 10 8 9 10 10 8 6 4 1 1 2 4 6 6
12 9 7 6 8 7 3 3 2 4 5 6 6 7 7 7 7 8 7 7 7 8 9 10 10 10 9 9 9 10 11 12 13 13 13 13 14 15 15 16 16 16 16 15 14 13 13 12 11 10 9 8 8 8 8 7 5 2 1 2 4 6 6
15 12 9 8 9 9 6 4 2 3 5 5 5 6 6 6 6 6 6 6 6 7 8 9 10 10 9 9 9 10 12 12 13 14 14 14 14 14 15 15 15 15 15 15 14 13 13 13 12 11 10 10 8 7 6 6 5 2 1 2 4 6 7
17 14 11 10 10 10 8 6 5 3 4 4 5 6 6 6 5 5 5 5 6 6 7 8 9 9 10 10 10 10 11 11 11 12 13 13 13 13 12 13 13 13 13 12 12 11 11 11 11 11 11 11 10 9 8 6 5 4 4 5 6 7 8
18 15 13 13 12 11 9 9 9 7 4 4 4 6 6 6 6 5 5 5 5 6 6 7 8 8 9 9 9 9 9 10 10 10 10 10 10 10 9 9 9 9 9 9 8 8 8 8 9 9 10 10 10 9 9 8 6 6 6 7 7 8 9
18 14 14 14 12 11 11 13 12 9 6 5 5 6 7 7 7 6 6 5 5 5 5 6 6 6 7 7 7 7 7 7 7 7 7 7 6 6 6 5 5 5 5 5 5 5 5 5 6 6 7 8 8 8 8 8 7 7 7 8 9 9 10
17 15 15 15 13 12 13 15 15 12 8 7 6 6 7 7 7 6 6 5 5 4 4 5 5 5 5 5 5 5 5 5 5 5 5 4 4 4 3 3 3 2 2 2 2 1 1 2 3 4 5 6 6 7 7 8 8 8 8 9 10 11 11
17 16 16 16 14 13 14 16 16 14 10 9 8 7 8 8 7 7 6 6 5 5 4 4 4 4 4 3 3 3 3 3 3 3 4 4 3 3 3 2 2 2 1 0 1 1 1 1 1 2 3 4 4 6 7 8 9 9 9 10 10 11 12
18 17 17 18 15 14 15 17 17 16 13 12 11 9 9 9 9 8 7 6 6 5 5 5 4 3 2 1 1 0 1 1 1 1 2 2 2 3 3 3 3 2 2 2 2 2 3 3 3 2 1 1 2 3 6 8 9 10 10 10 11 11 12
18 18 18 19 17 16 16 16 17 18 16 14 13 11 11 11 10 10 8 7 6 6 6 5 4 3 2 2 2 2 3 2 2 2 1 1 1 2 3 4 4 4 3 3 2 2 3 3 3 3 2 2 2 1 3 5 7 8 9 10 11 12 12
17 17 17 18 18 19 20 17 17 17 16 16 15 13 13 13 12 11 10 10 9 8 7 7 6 6 5 5 4 4 5 5 5 5 4 3 3 3 4 5 5 6 6 5 4 4 4 4 4 4 4 4 4 4 3 4 5 6 9 11 12 13 13
14 15 15 15 17 21 21 19 18 17 17 18 17 15 16 16 15 14 14 13 13 12 11 10 10 9 8 7 7 7 7 7 8 8 7 7 6 5 6 7 8 9 9 9 8 6 6 5 5 6 6 6 6 6 6 5 5 6 9 12 13 13 13
11 12 13 13 15 19 21 20 19 19 19 20 19 17 17 17 17 16 16 16 16 15 15 14 13 12 10 10 9 9 10 10 11 11 11 11 10 9 8 8 10 12 12 12 12 12 10 8 8 8 8 8 9 9 9 8 7 8 10 11 12 13 13
10 11 12 14 16 17 18 19 20 20 20 21 20 19 18 18 18 17 17 17 17 17 16 17 16 14 13 13 13 13 14 14 14 14 14 15 15 14 13 12 12 14 14 14 16 16 13 11 11 10 10 10 11 11 12 11 10 11 11 11 12 13 14
9 10 10 13 16 17 18 19 20 22 22 22 21 20 19 19 19 19 18 18 17 17 18 19 19 17 17 18 19 18 17 17 17 17 17 17 17 17 16 15 15 16 17 16 16 17 16 14 12 10 11 12 12 12 13 12 13 13 12 12 13 14 14
9 11 11 12 14 16 18 20 21 23 24 24 23 23 22 21 21 20 20 19 18 16 17 19 19 19 19 21 22 21 20 19 18 18 17 17 17 16 16 17 18 19 19 18 17 16 15 14 12 11 13 14 13 14 14 14 14 14 13 13 14 14 14
8 10 12 13 14 14 16 18 21 23 25 25 24 23 22 22 22 23 23 24 25 23 21 20 19 20 21 21 20 18 17 17 15 14 14 13 13 13 15 16 17 18 19 18 17 16 15 14 13 13 15 16 15 15 16 16 15 14 14 15 15 15 16
8 9 11 13 15 15 16 17 19 21 23 24 23 21 23 24 25 26 25 23 25 27 24 19 18 19 19 18 16 14 13 13 12 12 12 12 11 12 12 14 14 15 16 17 18 17 15 14 14 15 17 17 17 17 17 17 16 15 15 15 15 16 17
9 10 12 13 15 16 18 19 19 20 22 21 18 17 20 22 21 22 21 17 16 19 19 16 14 15 15 13 12 11 11 11 10 10 10 10 10 11 12 13 15 15 17 18 19 17 14 13 14 16 18 19 19 18 18 17 17 16 15 16 16 17 17
5 7 10 12 14 15 17 17 17 18 19 16 11 10 14 14 12 12 13 12 11 12 14 14 13 13 12 11 10 10 9 9 9 9 9 9 9 9 10 12 14 16 17 17 17 17 14 12 12 16 18 19 19 19 18 17 17 16 16 17 17 18 19
4 4 6 8 11 13 14 14 13 13 11 10 9 10 11 11 11 11 10 10 10 11 11 11 11 10 10 9 9 9 8 8 7 7 7 7 6 7 8 9 10 12 13 14 15 15 14 10 10 14 18 19 19 18 18 17 17 17 17 18 19 20 21
4 3 5 6 7 9 10 10 9 8 8 8 10 11 10 10 11 11 10 11 10 10 9 10 10 10 10 9 9 8 8 7 7 6 6 5 5 6 6 7 8 9 10 11 12 12 11 9 10 14 17 18 18 18 18 18 18 17 17 18 20 22 24
4 2 2 5 7 8 8 8 8 8 8 9 10 11 10 10 11 11 11 11 10 9 10 10 10 10 10 10 10 9 8 8 8 7 6 5 5 5 4 5 5 6 6 7 8 8 7 8 11 15 17 18 18 18 18 18 17 17 18 20 22 24 26
8 6 4 5 5 6 7 8 9 9 10 10 11 12 11 10 11 12 12 11 11 10 10 10 10 11 11 11 11 10 9 9 8 7 6 5 5 4 4 4 3 2 3 3 3 4 5 8 12 15 17 18 17 17 17 17 17 19 20 22 24 25 27
14 13 12 9 6 6 7 9 10 11 12 12 12 12 12 12 11 11 10 10 9 9 9 9 9 9 9 10 10 10 9 9 8 7 6 6 6 6 6 5 4 4 4 3 2 3 6 10 14 16 16 16 16 16 16 17 18 20 22 23 25 26 27
17 17 17 14 10 9 11 12 13 14 14 13 13 13 14 13 12 11 10 9 8 7 6 5 6 6 6 7 8 8 9 9 9 9 8 7 7 7 6 5 4 4 4 3 3 5 8 11 13 14 14 14 14 15 17 18 20 22 23 25 25 26 27
18 17 17 16 15 15 16 16 15 16 16 15 15 15 15 15 14 12 11 9 7 6 5 6 6 7 8 8 9 10 11 11 11 10 10 8 7 6 5 4 3 4 4 4 5 7 9 11 13 13 13 14 15 16 18 20 22 23 24 25 26 26 27
20 19 17 17 17 18 20 21 20 20 20 18 17 17 17 16 15 14 13 12 11 10 9 9 9 10 10 10 11 10 11 11 11 11 10 9 7 6 5 4 4 4 5 6 7 8 10 12 13 14 14 15 17 18 20 21 22 23 24 25 25 25 25
22 22 21 20 19 18 19 22 24 24 23 21 20 19 18 17 16 15 14 13 12 11 11 11 10 10 10 10 9 8 8 9 10 10 10 9 8 6 6 5 5 5 6 7 8 9 11 12 13 15 16 17 18 19 20 21 22 23 23 24 24 24 24

ECMWFFLT1_850_spd_030.txt.gz
Wind_Speed
12 14 14 13 12 11 10 9 7 6 7 7 6 4 2 2 3 4 3 3 2 2 2 3 3 3 3 3 3 3 3 4 6 6 7 6 5 6 8 9 9 9 7 7 8 7 6 8 8 7 7 6 6 5 5 3 2 1 2 5 6 6 7
13 14 14 13 12 11 10 10 9 7 6 6 6 5 4 3 4 4 4 3 3 4 4 3 3 3 3 3 3 3 3 4 5 5 6 5 4 4 6 8 8 8 6 6 7 7 5 7 9 9 9 7 6 5 5 4 4 4 5 6 8 7 7
13 14 14 13 12 11 10 9 9 8 6 6 6 6 6 5 5 5 4 4 4 5 4 4 4 4 3 3 2 2 2 3 5 5 6 6 6 5 5 6 7 7 7 6 6 6 5 6 7 9 9 8 8 7 7 7 7 7 6 7 7 7 7
12 13 13 13 12 12 11 9 8 8 8 7 7 8 8 7 7 7 7 6 6 6 5 4 5 4 4 3 2 2 2 2 4 6 6 7 7 6 6 6 6 6 6 6 6 6 6 6 8 9 8 8 9 8 8 9 8 7 7 7 7 6 6
10 11 11 12 12 12 11 10 9 8 8 9 9 10 9 8 8 8 8 7 7 6 6 5 5 4 4 4 3 2 1 2 3 4 5 5 6 6 6 6 6 5 4 4 5 6 6 6 8 9 8 8 9 8 8 8 8 7 6 7 6 6 5
9 9 10 10 11 10 9 10 10 9 9 10 10 11 10 8 8 9 9 8 8 7 6 5 5 5 5 5 5 4 3 3 4 4 4 5 6 7 7 6 6 5 4 5 5 5 6 7 8 8 8 8 8 8 7 6 6 6 6 6 5 4 3
8 8 10 9 8 8 9 10 11 11 11 11 12 12 11 10 10 12 12 11 10 10 9 9 9 10 9 7 6 6 5 5 5 5 5 6 7 8 8 7 6 6 6 6 6 5 5 6 7 7 7 7 7 7 7 6 5 4 4 4 4 3 4
7 8 10 9 7 7 8 10 10 11 11 12 13 14 13 12 13 14 13 12 11 10 11 12 12 13 12 9 8 9 8 8 8 9 9 9 10 10 9 9 8 8 8 8 7 6 5 5 6 7 7 7 7 6 6 6 5 4 3 2 3 4 5
7 8 9 8 6 6 6 8 9 10 11 12 14 15 15 14 14 13 12 10 10 10 10 12 12 13 12 11 11 11 12 12 12 12 12 12 12 12 12 12 11 11 11 10 9 9 8 7 6 7 7 6 7 7 7 6 5 3 3 2 4 5 6
8 8 9 6 4 3 5 7 8 9 11 12 14 15 15 14 13 11 10 9 9 9 10 11 12 12 12 12 12 12 13 13 13 14 14 14 14 15 15 15 14 13 13 12 11 11 10 9 7 6 5 4 4 5 7 6 5 3 3 2 2 5 6
9 9 9 6 3 2 5 8 8 8 11 12 14 15 14 13 12 11 10 9 9 10 10 11 11 12 12 12 12 12 13 13 13 14 15 15 16 17 16 16 15 14 14 14 13 13 13 12 9 6 5 4 2 3 4 6 6 4 2 2 2 3 5
9 10 10 8 5 4 7 10 9 10 11 12 13 14 13 12 12 11 10 10 10 10 11 11 12 12 12 12 12 12 13 13 14 14 15 15 16 16 16 16 15 15 14 14 13 13 13 12 9 7 7 6 6 5 4 4 6 5 4 2 3 4 5
11 11 11 9 6 5 8 10 10 11 12 12 12 13 12 12 12 11 11 11 11 11 12 12 12 13 13 13 13 13 13 14 13 13 14 14 14 14 14 14 14 14 13 11 11 11 11 10 9 8 8 7 8 8 6 5 6 6 4 4 5 6 7
12 11 11 9 7 7 9 10 10 11 13 13 12 12 12 12 12 12 12 12 12 12 12 13 13 13 13 13 13 13 13 12 11 11 12 11 11 11 10 10 10 10 10 9 8 8 7 7 7 7 7 6 6 7 6 6 6 5 5 6 6 7 9
15 13 12 10 9 9 9 11 11 11 12 13 13 13 13 12 12 12 12 12 12 12 12 12 12 12 12 12 12 12 12 11 9 9 10 9 9 8 8 7 7 7 7 7 7 6 5 5 4 4 5 5 5 7 6 5 5 4 4 7 8 7 11
15 15 13 10 11 10 10 12 13 11 11 12 13 13 13 13 12 12 12 12 11 11 11 11 11 11 11 10 10 10 11 10 9 9 8 8 7 7 7 6 5 5 5 5 5 5 5 5 4 3 4 5 5 6 6 5 4 3 3 5 7 5 9
14 15 13 12 12 12 12 13 14 13 11 10 12 13 13 13 13 12 12 11 11 11 11 10 10 10 10 10 9 8 8 9 9 8 8 8 7 7 6 6 5 5 5 5 5 5 4 5 4 4 4 4 4 5 5 5 4 2 2 2 5 3 7
13 14 13 13 13 13 14 13 14 15 14 11 11 12 12 13 13 13 12 12 12 12 11 11 10 10 10 10 9 8 7 7 7 7 8 8 8 7 7 6 6 5 5 5 4 4 4 5 4 3 3 3 3 4 3 2 2 2 2 0 4 7 8
13 13 13 13 13 15 16 14 14 15 15 13 13 12 12 12 12 12 12 12 12 12 12 12 11 11 10 10 10 9 8 7 7 7 7 7 8 8 7 7 6 6 6 6 6 7 6 6 6 5 4 4 3 4 4 2 1 1 1 1 3 7 8
12 13 13 13 15 17 18 16 15 15 16 15 14 14 13 13 13 13 13 13 13 13 13 13 12 12 11 10 10 9 8 7 7 7 7 7 7 8 8 8 8 8 8 8 8 8 9 9 9 8 7 6 5 4 4 3 3 2 2 2 4 4 5
9 10 11 12 14 16 18 18 17 17 17 16 16 15 15 15 15 15 15 15 15 15 14 14 14 13 11 11 11 9 8 8 7 8 8 9 10 10 10 10 10 10 10 9 9 10 11 11 11 11 10 9 7 6 5 5 4 4 4 4 6 6 5
6 8 9 11 12 14 15 17 19 20 18 17 16 17 17 17 16 16 17 17 17 17 16 16 16 15 13 13 12 11 10 9 9 10 10 11 12 13 13 13 13 13 13 11 11 11 11 11 11 11 11 11 10 9 7 5 4 4 5 6 8 7 7
4 6 7 8 11 13 12 13 17 19 19 18 17 17 18 18 16 15 16 17 17 17 18 19 19 17 16 15 14 13 13 14 14 14 14 14 15 15 15 15 16 17 16 15 14 13 12 11 11 11 11 11 11 10 9 7 5 5 6 7 8 7 8
2 4 6 7 9 11 12 13 15 17 19 19 19 19 19 19 17 17 17 17 17 18 19 21 20 19 18 18 17 17 18 18 19 18 18 18 17 15 13 13 15 17 17 17 16 14 13 12 12 13 13 13 13 11 9 7 6 7 7 6 7 9 10
2 3 4 6 8 10 12 14 15 16 17 18 20 20 20 20 19 18 17 17 18 19 20 22 22 22 22 21 20 21 21 21 20 19 19 18 15 12 10 10 13 16 16 16 15 14 14 13 14 14 15 15 14 11 10 10 8 9 10 11 11 13 13
3 4 5 6 8 9 11 13 15 16 16 18 19 19 20 20 20 19 17 17 17 18 20 22 23 25 27 26 24 23 22 21 18 16 16 15 13 12 11 10 10 12 13 13 12 12 13 13 14 15 17 16 14 12 12 13 13 13 14 15 14 12 12
2 4 6 7 8 9 10 11 13 14 15 17 17 16 16 18 21 22 21 20 19 20 22 24 25 27 28 27 25 24 22 19 16 14 13 13 12 12 11 10 10 9 9 11 11 11 12 12 12 14 17 17 14 12 14 15 15 16 15 15 15 13 14
2 3 4 6 7 8 9 11 12 13 14 16 17 16 17 21 25 27 27 26 24 23 22 23 24 23 22 20 18 17 17 16 14 12 11 11 10 10 11 11 11 8 7 8 10 11 12 13 12 12 15 16 14 13 15 16 16 16 16 16 16 16 17
4 4 5 5 5 7 9 10 11 11 12 12 13 15 19 21 22 22 22 22 22 19 17 17 17 16 15 14 13 13 13 12 11 11 11 10 9 9 9 8 7 6 6 6 8 10 12 12 11 11 13 15 15 14 16 17 16 17 17 17 18 18 18
6 6 7 6 6 6 7 8 9 10 9 8 8 12 16 16 14 13 14 14 14 13 12 12 12 13 13 13 13 12 11 10 10 11 10 10 9 8 7 6 5 5 6 6 8 10 10 10 10 10 10 12 13 15 17 17 17 17 18 18 18 17 18
6 6 6 6 7 8 7 7 7 7 7 7 10 14 15 14 13 12 12 12 12 11 11 11 12 12 13 13 13 12 10 10 11 11 10 10 9 8 7 6 7 7 7 8 9 9 10 10 10 10 10 10 12 15 17 17 18 18 17 17 17 18 19
9 9 8 8 8 8 8 9 9 8 8 9 12 14 14 13 13 13 12 12 12 11 11 11 12 13 13 13 13 12 11 10 11 10 10 11 10 9 8 7 7 8 8 9 9 9 11 11 10 10 10 10 13 16 17 17 17 17 17 17 19 21 23
12 13 13 13 13 11 10 10 10 10 10 10 11 12 12 13 14 14 13 13 14 13 13 13 14 13 14 14 14 14 12 10 11 11 11 11 11 10 9 7 7 8 8 8 8 9 10 11 10 10 11 11 13 15 16 16 15 15 16 18 20 22 23
15 16 16 16 16 17 16 14 12 11 11 12 13 14 15 17 17 16 16 17 17 17 16 15 15 14 14 15 15 15 12 10 11 11 11 11 11 10 9 8 7 8 7 6 6 6 7 8 9 10 11 12 13 14 15 15 15 16 18 19 20 21 21
19 19 18 17 17 17 18 18 16 14 14 15 16 17 18 19 19 18 19 19 19 18 16 15 13 13 13 13 13 14 14 12 12 12 11 11 11 11 10 8 7 7 6 4 4 5 6 7 8 9 10 12 13 14 14 15 16 16 17 17 17 18 17
24 23 22 21 19 17 17 19 19 18 18 19 19 21 22 22 21 21 21 20 19 17 15 13 12 11 11 10 10 12 13 13 13 12 12 12 12 12 11 9 8 7 6 6 6 7 7 8 8 9 10 12 13 13 14 15 15 15 16 16 16 15 13
28 27 25 24 23 20 18 19 21 22 21 20 21 23 24 24 24 24 23 22 20 18 15 14 12 11 9 9 9 10 11 11 12 13 13 13 14 13 12 10 10 9 8 8 8 8 8 8 9 10 11 12 12 13 13 12 13 14 14 14 12 12 12

ECMWFFLT1_850_spd_033.txt.gz
Wind_Speed
13 14 13 12 11 10 8 7 5 6 5 4 4 3 1 1 3 4 4 4 4 4 3 4 5 6 5 4 3 3 3 4 4 5 5 4 4 4 5 6 5 5 6 7 8 9 9 10 8 6 6 7 8 10 10 11 11 11 12 10 9 10 10
14 15 13 12 11 10 9 8 6 5 4 4 3 3 2 2 3 3 2 4 6 5 4 4 5 5 4 4 3 2 2 2 3 3 3 4 4 3 3 4 4 4 5 7 8 8 10 11 9 7 8 7 8 9 9 10 10 10 11 11 10 10 10
15 13 12 12 11 10 9 9 7 5 3 3 3 4 4 3 3 3 1 3 5 6 4 5 5 5 4 4 3 2 2 1 2 2 3 3 4 5 3 3 4 3 4 6 7 7 9 10 9 9 9 8 9 9 9 10 10 10 9 10 10 9 9
15 13 12 12 11 10 9 8 7 5 4 4 4 5 5 5 4 4 2 2 3 4 4 5 5 4 4 4 4 3 2 1 0 1 2 2 3 6 5 3 4 3 3 5 5 6 8 9 8 9 9 8 9 9 9 9 9 9 9 9 9 8 9
14 13 12 12 11 9 8 7 6 6 5 4 4 5 6 6 5 4 3 2 3 3 4 5 5 4 4 3 4 5 4 3 3 2 3 3 4 5 5 4 4 4 4 4 5 5 8 9 9 9 8 8 8 8 8 9 9 8 9 9 9 8 8
13 12 12 11 10 8 7 6 5 5 5 5 5 5 6 6 5 5 4 3 4 5 4 5 6 6 5 4 5 5 5 5 6 5 5 6 7 7 7 7 6 6 7 6 6 7 8 9 9 9 8 7 8 8 8 8 8 8 8 8 8 7 7
13 12 12 11 9 8 6 6 5 5 5 6 6 5 5 6 6 7 7 6 5 5 5 7 9 9 7 6 8 8 7 7 7 7 7 8 9 9 9 9 8 7 7 7 6 7 8 8 8 8 8 7 6 7 8 8 7 7 8 8 7 6 5
12 12 11 9 9 8 6 6 6 6 6 6 6 7 7 7 8 9 7 7 7 6 7 8 9 11 10 8 8 8 8 7 7 6 6 7 8 10 10 9 8 8 8 7 6 7 7 7 7 6 7 6 5 6 7 7 7 7 6 6 6 6 6
11 11 10 9 8 7 7 6 6 6 7 7 7 8 8 9 10 10 9 8 8 8 9 9 9 10 10 9 8 8 7 7 7 7 6 7 7 10 11 10 9 9 9 9 8 8 9 7 7 6 5 5 6 6 6 6 6 6 5 4 5 5 5
11 11 10 10 8 7 6 6 6 8 8 8 8 9 10 11 10 9 8 8 8 8 8 8 9 10 10 10 10 10 9 9 9 9 9 9 9 10 12 11 10 9 10 10 9 10 10 9 7 6 4 3 3 4 6 5 5 5 4 4 5 5 5
11 11 11 10 9 7 5 5 7 9 9 9 10 11 11 11 9 8 7 7 8 8 8 8 8 9 9 9 10 9 10 10 9 10 10 11 11 12 12 11 11 11 10 10 11 11 11 10 8 6 5 3 2 2 5 6 6 5 4 4 4 4 4
11 10 10 9 8 5 3 6 8 9 9 10 11 12 11 10 9 8 7 7 7 8 8 8 8 8 8 9 9 9 9 9 9 10 11 11 12 13 13 13 13 13 12 11 11 11 11 10 8 6 6 5 4 5 4 6 6 6 4 3 2 2 3
10 11 10 8 6 3 3 8 10 10 10 11 11 11 10 9 8 8 8 7 8 8 8 9 9 10 10 10 9 9 10 10 10 11 11 12 12 12 13 13 13 13 11 9 9 9 9 9 8 7 6 6 5 7 6 5 6 6 4 2 2 1 4
12 12 9 7 7 5 6 11 12 11 12 11 11 11 9 9 9 8 8 8 9 9 10 11 11 11 11 11 11 12 12 11 10 11 12 12 12 11 10 10 11 10 9 8 7 6 6 7 6 6 6 5 5 5 4 5 6 5 2 3 2 1 5
14 12 8 6 8 7 8 12 12 12 13 12 12 11 10 10 9 8 9 8 9 10 11 12 12 12 12 13 14 14 12 9 10 12 12 10 10 10 9 8 8 7 7 8 7 4 4 4 3 4 5 4 4 4 3 3 3 3 1 3 0 3 4
13 11 9 8 10 9 10 13 12 12 13 12 12 11 11 11 10 10 9 9 9 10 10 12 12 12 13 14 14 14 12 10 11 12 11 8 8 9 9 7 7 7 6 7 8 6 5 4 2 3 4 3 4 4 3 3 2 1 1 1 1 2 2
12 11 10 11 12 11 11 13 12 12 12 12 12 11 11 12 11 11 10 9 10 10 10 11 11 11 12 12 12 12 12 11 11 10 9 7 7 7 7 7 7 7 7 8 8 6 6 6 4 3 3 3 3 5 5 4 1 0 1 2 2 2 3
11 11 12 14 13 12 12 12 12 13 12 12 13 12 12 12 12 12 11 11 11 10 10 11 11 11 11 11 10 10 10 10 10 10 9 9 9 8 8 7 8 8 8 8 7 6 6 7 5 4 4 3 2 4 5 3 1 1 1 2 4 6 6
11 12 14 14 12 12 12 12 13 13 12 13 13 13 13 13 13 12 12 12 12 11 11 11 11 11 11 11 11 10 10 10 10 9 9 10 10 9 9 9 8 9 9 8 8 8 8 9 8 7 7 6 6 6 5 3 2 2 2 3 4 6 7
10 11 12 13 12 12 12 12 13 13 13 13 14 14 13 14 14 13 12 12 13 12 12 12 12 12 12 12 12 12 12 11 10 10 10 9 9 10 10 10 10 10 10 10 10 10 11 11 10 9 9 10 12 11 7 5 4 4 4 3 5 6 6
9 10 11 12 12 13 12 13 13 13 13 14 14 14 14 14 14 14 13 13 13 13 14 13 13 13 13 13 13 13 13 12 12 12 12 12 11 12 11 11 11 11 11 11 11 11 11 11 10 10 9 9 13 13 7 6 6 6 5 5 6 7 7
8 9 11 12 13 14 14 14 14 14 14 14 15 14 14 14 15 14 14 15 15 15 15 15 15 15 14 14 14 14 14 14 13 13 13 13 14 14 14 14 14 13 14 14 13 12 12 11 9 9 9 9 11 11 8 8 7 6 7 8 8 8 9
6 6 8 9 11 12 13 14 15 14 14 14 14 15 14 14 15 15 15 16 16 17 17 17 18 19 18 16 15 15 15 16 15 15 15 14 15 15 15 16 16 16 18 18 16 14 14 13 10 11 13 11 10 10 10 9 8 7 8 9 9 9 9
5 5 5 6 7 8 9 11 13 15 15 15 15 15 16 16 16 16 16 17 17 19 20 21 22 22 21 20 19 18 18 18 17 17 17 17 17 18 18 18 17 18 20 20 20 18 16 15 13 14 15 14 13 12 11 10 8 8 9 9 8 9 9
4 4 4 4 5 7 9 9 11 13 16 18 18 18 19 18 17 16 17 18 18 20 22 22 22 22 22 23 22 21 20 19 19 20 20 21 21 21 22 20 18 19 19 19 20 20 18 17 16 15 15 15 14 14 14 13 11 9 9 8 7 7 8
2 2 3 4 5 7 9 10 11 12 15 18 20 20 20 19 19 18 19 19 19 19 20 20 20 21 22 22 23 22 21 20 20 21 23 24 23 22 21 19 17 18 18 18 19 19 18 16 15 14 14 14 15 16 16 16 15 13 12 12 9 7 8
2 1 2 3 3 6 7 9 12 13 14 16 18 19 19 20 20 21 22 22 22 22 22 21 21 22 22 22 23 23 23 20 20 21 23 24 23 19 16 14 12 12 15 16 15 13 13 13 12 12 12 13 15 16 16 17 17 16 15 14 12 11 12
3 1 1 2 3 5 6 8 11 13 14 15 16 18 19 19 20 21 22 22 22 23 24 23 23 24 23 23 25 27 26 24 24 25 25 26 24 19 13 9 8 9 11 12 10 10 12 12 10 10 10 13 15 16 17 18 17 15 14 14 14 14 15
3 2 1 2 3 5 7 9 10 11 14 15 15 17 19 19 22 24 23 23 24 24 24 24 25 25 25 25 26 26 24 23 23 23 22 20 18 14 9 8 8 8 9 11 10 10 12 10 9 9 10 12 15 16 18 18 16 15 15 15 15 15 16
4 3 3 3 4 4 6 8 9 10 13 14 14 16 17 17 20 22 23 25 26 24 25 26 26 26 25 24 22 20 17 17 16 15 14 13 11 10 11 11 10 9 10 11 9 9 10 9 8 8 9 11 14 16 16 16 16 16 16 16 16 16 17
5 5 5 4 5 5 6 7 9 10 12 13 14 14 15 16 17 17 19 21 22 21 22 22 21 20 19 18 17 16 14 12 12 12 12 10 10 11 13 11 10 10 10 9 7 7 8 7 6 7 8 11 13 14 14 15 15 16 16 16 17 18 18
7 7 6 6 6 7 7 8 9 10 12 13 13 14 15 15 16 17 18 19 19 19 18 16 15 16 16 16 16 17 14 12 12 13 12 10 10 12 12 10 11 11 10 8 8 8 8 7 8 8 8 9 9 11 13 13 13 14 16 16 18 19 20
8 8 9 9 9 9 9 10 10 11 12 13 14 14 14 15 17 18 18 17 18 16 14 14 14 15 15 15 16 17 15 13 13 13 12 11 10 10 11 11 11 11 9 8 8 8 8 10 11 11 10 9 10 12 14 13 11 12 15 16 18 19 20
13 13 14 14 13 13 12 12 13 13 13 14 15 17 17 17 18 19 18 17 17 15 14 14 15 15 14 15 16 16 15 14 12 12 12 12 10 8 10 11 10 10 9 9 8 8 9 11 13 13 13 14 15 17 18 16 13 13 15 16 16 15 14
20 21 21 20 18 16 15 15 15 15 16 17 17 19 19 18 17 17 17 16 15 16 16 15 15 16 16 16 16 16 17 16 13 12 12 12 10 10 10 11 10 10 10 9 9 9 10 12 15 15 14 15 17 18 18 16 14 13 12 11 10 10 9
23 23 22 21 20 19 18 17 16 17 18 19 19 19 19 18 17 17 18 17 15 17 19 18 17 17 17 17 18 18 18 18 16 14 12 11 11 13 13 12 10 11 11 10 9 9 10 12 14 15 14 15 16 16 16 14 12 11 10 9 10 10 9
23 21 20 20 20 20 19 19 19 19 19 20 21 21 20 20 19 20 21 19 17 17 20 22 21 19 18 18 18 18 18 19 18 16 13 10 13 16 16 13 11 11 11 10 10 10 11 12 13 14 15 14 15 15 13 11 10 9 9 10 10 8 7

ECMWFFLT1_850_spd_036.txt.gz
Wind_Speed
6 8 8 8 7 8 7 5 6 5 6 7 5 4 3 5 7 8 10 8 3 3 3 4 6 4 3 4 4 4 4 5 6 6 6 6 7 9 10 8 6 8 11 10 10 12 14 15 15 15 18 19 18 17 16 14 11 10 10 8 6 4 4
9 10 9 8 8 7 6 5 5 6 6 6 6 6 4 5 7 7 10 12 8 4 3 4 8 6 4 4 3 4 4 4 4 5 6 6 6 8 10 10 9 10 11 11 11 12 13 16 15 15 17 17 17 15 14 16 15 13 12 9 6 3 5
11 10 9 8 7 7 7 7 7 6 5 6 7 7 5 5 6 4 8 13 12 9 6 4 7 7 6 5 4 5 5 4 5 6 7 7 6 7 8 10 11 11 11 11 12 13 14 14 15 16 16 16 17 16 13 14 13 13 12 10 8 4 2
12 11 9 8 8 8 8 8 7 5 3 5 7 9 8 8 8 5 5 8 9 9 7 5 5 4 6 6 5 5 6 5 6 8 9 9 8 9 8 8 8 9 10 10 11 13 14 15 16 17 15 14 17 16 13 13 12 11 11 9 8 3 2
12 11 10 9 9 8 8 7 6 5 5 4 5 7 8 8 9 9 6 6 7 8 8 7 5 3 4 6 6 6 7 7 7 8 10 10 10 10 10 10 9 8 8 8 11 14 14 15 17 17 17 17 16 14 13 13 13 12 11 9 8 5 2
14 11 10 10 9 7 6 6 5 6 6 4 4 5 7 7 8 9 8 7 8 9 11 11 7 4 3 4 5 6 7 9 9 9 12 13 13 13 14 14 13 12 11 10 12 15 15 16 17 17 18 17 16 16 15 15 14 12 10 9 7 6 2
14 11 10 10 8 7 6 5 5 6 6 6 6 5 7 9 9 11 10 8 8 9 11 12 10 6 5 7 8 8 9 10 10 11 13 16 17 16 15 14 14 13 12 12 12 14 17 17 16 16 15 15 16 17 17 15 13 12 10 6 3 2 3
15 12 11 10 9 8 7 5 5 7 8 8 9 8 7 9 10 10 9 7 8 8 11 14 14 12 10 9 9 9 9 9 9 10 12 15 18 16 15 16 15 13 11 10 11 14 14 12 12 13 11 13 17 18 18 16 12 10 8 6 2 3 5
16 14 12 12 11 10 8 7 7 8 9 9 8 7 6 7 8 9 9 10 11 10 11 13 15 15 12 10 10 10 10 10 9 9 11 14 17 16 14 15 17 16 14 13 14 15 13 10 11 11 8 11 16 17 18 16 12 10 6 4 3 3 6
17 15 14 13 13 11 9 9 9 9 10 8 5 5 7 10 10 11 11 11 11 11 10 10 12 12 11 11 13 13 12 11 10 11 13 15 17 16 14 14 15 17 17 15 17 18 16 14 13 10 7 9 14 16 17 16 13 11 8 5 4 3 5
16 16 16 15 12 10 8 9 10 10 9 6 4 7 10 11 10 9 8 8 10 11 10 10 11 10 10 12 12 12 12 12 13 14 16 18 18 16 15 14 14 15 15 15 16 16 16 14 12 8 6 8 12 14 17 18 14 10 9 7 5 3 4
18 17 16 15 11 8 6 8 10 10 8 5 6 8 9 8 7 6 5 6 7 8 9 10 10 9 10 10 11 12 12 11 13 14 15 17 17 15 15 16 15 15 16 16 17 16 15 12 9 7 6 8 11 11 15 18 15 10 7 6 5 3 3
20 19 16 13 10 7 5 8 10 8 7 6 7 8 8 6 5 4 4 5 6 7 8 9 9 9 9 9 10 11 11 11 13 13 14 15 16 16 18 18 16 15 13 15 16 15 15 13 10 8 7 9 11 11 11 11 11 11 6 3 4 3 3
20 17 15 12 9 7 6 8 9 7 7 8 7 8 7 5 4 4 5 6 7 8 9 9 9 10 10 10 10 12 12 12 14 15 15 15 14 14 16 16 15 13 12 13 10 9 10 10 9 9 8 7 9 9 6 3 6 8 5 4 4 2 4
19 16 14 11 8 8 8 9 10 8 9 9 8 9 8 6 6 6 7 7 7 8 9 10 11 10 10 12 13 12 10 11 14 15 15 14 13 13 13 12 11 10 12 13 9 7 7 6 6 9 8 6 9 10 6 4 4 3 2 4 3 2 3
17 16 14 10 9 10 9 9 9 9 9 9 9 9 8 7 8 8 8 8 8 9 10 11 10 9 11 14 14 11 9 11 14 14 13 13 12 12 10 8 7 6 8 11 11 9 8 7 6 9 9 7 8 10 9 9 6 2 2 5 5 3 2
15 16 14 11 10 11 10 10 9 10 10 9 11 10 8 8 9 8 8 7 7 8 9 10 10 10 11 13 13 11 10 12 13 12 11 9 9 9 7 5 4 3 4 7 8 8 8 8 5 4 5 4 5 6 7 8 6 4 5 4 4 5 1
14 14 14 13 11 10 10 10 9 10 10 9 11 10 8 9 9 9 9 8 7 7 7 8 9 10 11 12 11 11 10 11 11 11 10 7 8 8 7 6 5 4 4 5 5 6 7 6 3 1 3 2 4 4 6 8 7 7 6 3 1 3 2
15 13 13 15 14 10 11 11 10 10 9 9 10 10 9 10 9 9 9 8 8 7 6 7 8 8 9 9 10 9 9 10 10 10 10 9 9 8 8 7 7 6 6 6 5 6 7 7 6 6 6 5 6 6 6 6 5 5 6 4 2 4 4
14 13 13 16 17 13 12 11 11 10 8 8 10 10 9 10 10 9 9 9 9 8 8 8 8 8 8 9 9 9 9 10 10 10 11 11 10 10 9 8 8 8 7 6 6 7 8 7 8 8 8 8 9 10 8 5 3 3 5 5 4 2 2
11 12 14 16 16 15 13 13 12 12 10 8 9 10 10 10 11 11 9 9 10 10 10 10 10 10 10 10 11 11 11 12 11 12 13 12 11 11 9 7 7 7 7 6 8 9 9 8 8 9 10 10 11 13 11 8 6 6 5 5 3 2 4
9 11 13 14 14 15 15 14 14 14 14 12 10 10 10 10 11 12 11 10 11 12 12 12 12 12 12 12 12 13 13 13 13 12 13 13 11 10 9 9 9 8 8 9 10 10 11 9 8 9 11 10 10 13 13 10 8 8 6 5 5 6 5
8 10 12 12 12 14 15 14 13 14 17 17 13 12 12 12 12 13 13 13 13 13 13 13 12 12 13 13 14 15 15 14 14 13 14 15 14 13 13 13 13 12 12 13 13 12 13 12 10 9 11 11 10 11 12 11 9 8 7 7 8 8 6
5 7 9 10 10 11 13 13 12 13 15 17 16 15 15 14 14 15 16 16 15 15 15 15 15 16 17 16 17 18 17 15 16 16 16 17 18 19 19 16 15 14 14 15 16 17 17 17 14 13 12 12 12 12 11 12 11 10 12 11 9 10 9
3 4 5 6 7 8 9 10 12 13 14 16 18 18 18 17 16 16 18 18 17 17 19 20 21 21 20 20 20 21 20 18 18 19 19 19 20 19 17 15 16 17 17 18 20 22 22 21 19 17 15 14 15 15 13 13 13 12 14 13 10 12 13
2 2 3 4 5 6 6 7 8 10 11 13 16 18 20 21 20 20 20 20 18 19 21 23 24 23 23 23 23 23 23 23 22 22 22 22 21 19 17 18 18 18 18 20 24 25 24 24 21 18 16 15 16 17 16 16 16 15 15 14 13 13 15
3 2 0 1 2 3 4 6 8 10 11 12 15 19 23 24 23 23 23 22 21 21 23 24 24 24 24 25 25 25 26 26 27 26 25 25 24 22 21 21 20 20 20 21 24 23 21 21 20 17 17 17 17 17 17 17 17 17 17 17 16 17 18
5 4 3 2 2 3 4 6 8 10 11 11 13 18 21 23 23 24 24 24 23 24 25 26 25 25 25 25 25 26 27 27 28 28 27 27 26 24 24 24 22 22 21 19 19 18 17 17 18 18 18 17 17 17 18 18 18 18 19 19 19 20 20
6 5 4 3 3 4 5 7 8 8 8 9 10 13 16 18 20 21 23 24 24 25 28 28 26 26 26 26 26 27 28 28 28 28 27 27 25 23 24 23 19 16 15 14 13 15 16 16 15 16 16 16 17 17 17 17 17 17 18 19 19 19 18
5 4 3 5 6 5 5 6 8 10 10 9 10 11 13 14 16 17 18 21 23 26 29 29 26 26 27 28 28 28 28 29 29 28 27 24 20 17 17 16 13 12 12 11 11 13 16 15 13 13 14 15 16 16 15 16 16 17 18 19 18 18 18
5 4 3 4 6 6 6 6 7 9 11 11 11 12 13 14 15 15 16 18 20 23 26 26 24 23 25 27 28 28 29 30 30 28 24 19 14 12 13 13 12 12 11 11 11 12 13 13 12 11 12 14 16 16 14 14 15 15 17 18 19 19 19
9 9 8 8 8 7 7 8 8 9 10 12 13 13 14 15 16 16 16 16 17 19 22 22 21 22 25 26 27 29 29 29 27 23 19 15 13 13 14 13 13 13 13 12 12 11 12 13 13 11 11 12 13 13 12 11 12 13 15 17 18 17 17
11 12 14 15 15 14 13 12 12 12 11 12 13 14 15 16 16 17 18 18 19 21 23 22 21 22 23 23 25 26 26 24 23 20 16 15 15 17 16 14 16 18 17 14 13 13 13 15 15 14 13 11 10 9 9 9 9 11 12 13 15 16 17
14 16 18 19 20 21 21 19 18 17 16 15 14 15 16 18 19 19 20 20 22 24 23 22 21 22 22 21 21 22 23 23 21 17 15 15 18 20 17 14 17 20 18 15 14 13 13 15 17 18 16 13 10 10 12 13 12 13 13 13 16 16 15
20 21 22 23 24 25 25 24 22 21 20 19 18 18 19 21 22 22 22 22 24 25 23 22 22 22 21 20 19 20 23 23 19 15 16 18 19 19 17 15 16 17 16 14 13 13 12 14 17 19 18 17 15 16 17 17 16 15 15 15 14 12 9
21 20 20 21 23 24 25 25 24 24 24 23 23 23 23 23 25 25 24 24 24 24 23 21 20 20 20 19 18 18 21 21 18 16 17 20 21 18 15 13 14 14 13 13 12 12 11 13 17 19 19 19 19 18 17 16 16 17 17 16 13 11 10
21 20 19 18 19 21 23 24 24 25 25 24 24 24 24 24 24 25 25 23 22 22 22 21 19 19 19 19 19 18 19 20 19 18 18 20 23 21 16 14 12 11 11 11 11 11 11 14 17 19 19 20 19 18 17 17 16 15 15 14 11 9 9

ECMWFFLT1_850_spd_042.txt.gz
Wind_Speed
16 15 14 14 13 12 11 9 8 7 6 5 4 3 4 6 10 10 10 10 9 8 8 7 7 7 7 7 8 9 9 10 9 9 10 11 12 14 14 14 11 9 12 14 14 14 16 16 15 15 16 16 15 14 11 8 7 6 6 4 3 4 5
14 14 14 14 13 11 10 9 7 6 5 4 2 1 1 4 9 10 10 10 9 8 8 7 7 7 6 6 6 8 9 9 9 9 9 9 10 12 15 15 12 11 14 14 12 13 16 18 20 21 21 20 18 14 11 9 9 7 6 6 5 4 4
17 17 16 14 12 11 10 10 8 7 7 6 4 2 1 3 6 7 8 10 9 7 5 5 7 6 6 6 7 7 8 7 8 9 9 9 9 10 13 14 14 14 15 16 15 14 16 19 23 25 24 22 20 17 12 9 9 7 5 5 4 2 1
21 20 18 16 13 11 11 11 10 9 9 8 7 5 3 5 7 7 7 8 9 7 3 4 7 7 6 6 7 7 7 7 7 8 8 9 9 11 13 13 13 14 14 15 17 17 17 21 25 26 22 20 20 18 14 10 8 5 3 4 5 4 2
21 20 19 17 15 14 14 13 11 9 8 8 8 6 6 6 6 7 7 8 10 7 3 4 8 8 7 6 6 5 6 6 7 6 7 8 8 11 13 13 13 13 11 11 15 17 16 19 25 26 23 20 19 17 15 13 10 5 2 4 7 6 4
18 17 17 16 16 15 14 13 11 9 7 8 8 8 8 7 6 7 8 8 8 7 5 6 9 10 9 7 6 5 5 6 7 7 7 7 7 10 13 14 14 14 10 9 14 16 16 19 24 25 24 21 19 18 16 14 11 7 3 2 7 7 4
15 15 15 16 16 15 13 11 10 8 7 7 9 10 10 8 7 6 8 9 8 7 6 6 8 10 10 9 8 7 6 7 8 10 10 9 9 11 14 15 15 15 12 10 13 15 17 21 23 24 26 22 19 19 18 15 10 6 4 3 5 6 5
14 14 16 16 15 14 12 10 8 7 5 4 6 8 10 10 9 8 8 8 8 8 7 6 6 8 10 10 9 9 9 9 10 12 13 12 12 14 15 16 16 15 14 13 14 14 17 21 20 22 27 26 22 19 16 14 11 5 3 4 5 6 6
14 16 18 17 16 13 11 8 7 6 4 3 3 4 6 9 10 10 9 7 8 9 8 6 5 7 9 10 10 11 11 11 12 14 15 15 14 14 14 16 16 17 15 14 14 15 17 20 19 20 24 23 23 22 17 14 13 9 5 3 3 6 6
15 17 19 18 16 12 9 7 6 6 5 4 3 3 3 7 10 11 9 7 9 11 10 8 6 7 10 11 12 13 12 13 13 14 16 17 16 14 13 14 16 18 17 15 14 15 18 19 19 21 20 15 16 20 20 17 15 11 7 4 3 5 6
14 16 18 17 14 11 9 8 7 6 6 5 5 5 6 7 10 10 9 10 12 12 10 9 7 7 10 13 14 14 14 14 14 13 15 17 16 14 13 13 15 18 18 16 16 17 18 19 19 21 21 16 11 11 12 16 16 12 9 7 5 3 3
15 17 18 15 12 11 9 8 7 6 6 6 7 7 6 8 10 10 10 12 14 14 12 11 10 8 8 12 15 16 17 16 15 14 14 15 14 13 13 13 14 16 17 16 17 17 17 17 17 20 23 21 16 9 7 11 14 11 10 8 5 3 3
15 16 15 13 11 10 8 7 7 7 7 6 6 6 7 10 11 11 11 11 12 14 14 13 13 10 8 11 15 17 18 18 17 17 16 15 14 14 14 14 14 15 16 16 17 16 15 14 14 19 24 25 20 16 12 10 8 8 9 8 5 4 4
15 15 14 12 10 10 8 7 7 7 6 6 6 8 9 9 9 9 9 10 10 11 12 13 13 12 11 13 15 17 19 19 19 18 18 18 17 16 16 17 17 16 17 17 16 14 13 11 11 14 21 26 23 20 17 13 8 6 8 8 6 6 4
16 14 12 11 9 10 9 7 7 6 5 6 8 9 8 8 8 9 9 9 9 9 10 11 12 13 13 14 15 17 20 20 18 17 18 20 20 20 19 19 18 17 16 16 14 12 12 11 10 10 14 22 25 22 19 14 9 7 7 8 8 7 4
16 13 11 9 8 9 9 7 6 5 5 7 8 8 6 6 8 8 10 10 10 10 11 11 13 14 14 15 16 18 20 18 16 17 18 20 20 21 21 21 20 18 16 15 13 13 13 13 13 10 9 17 23 22 17 12 9 8 8 9 9 8 6
14 13 12 9 8 9 8 6 5 4 5 7 8 7 5 5 6 7 9 11 11 11 12 12 14 15 15 16 17 19 20 17 17 18 19 19 19 19 20 20 20 18 16 15 14 14 13 12 12 9 9 16 20 19 15 11 9 9 9 9 9 8 7
16 14 13 10 9 9 8 7 6 5 6 8 8 7 5 5 5 5 6 10 12 12 13 13 15 16 16 16 17 19 19 18 18 19 18 17 17 17 18 18 17 16 15 14 14 14 13 12 11 10 11 14 16 15 13 12 12 11 11 10 8 9 9
20 17 14 13 11 10 9 8 7 7 7 9 9 8 6 6 6 4 4 8 11 12 12 13 16 17 16 16 18 19 19 18 19 19 18 17 16 15 15 15 14 13 12 11 11 12 12 12 12 11 11 13 13 12 12 12 12 12 12 10 9 10 10
22 18 16 17 15 12 9 8 8 8 9 10 11 10 9 8 8 7 5 5 8 9 9 12 17 18 15 16 17 18 19 18 18 18 17 16 15 14 14 13 12 11 11 11 11 11 12 13 15 15 13 13 13 13 14 14 13 13 13 13 12 11 11
21 19 19 20 17 13 11 9 9 10 10 12 13 11 9 9 10 9 7 5 5 5 6 10 17 18 15 15 16 17 18 17 17 17 17 17 17 16 15 15 14 13 13 14 15 15 14 15 16 17 17 16 15 15 15 15 14 14 13 14 14 14 13
20 20 22 22 17 15 13 11 10 11 11 13 14 13 10 10 11 11 10 9 7 6 5 7 14 17 16 14 15 17 18 18 18 18 18 18 18 18 17 16 15 14 15 16 17 17 17 17 17 17 18 17 16 16 16 16 16 16 15 15 16 15 16
18 20 21 21 18 17 17 14 13 13 12 12 14 13 11 11 12 12 12 12 11 11 9 7 8 12 13 13 14 16 18 20 20 19 19 18 18 18 17 16 16 15 15 16 17 17 18 18 18 17 17 17 17 17 17 17 18 19 19 18 18 18 19
17 19 19 19 19 18 19 18 15 15 14 13 13 13 12 13 14 14 13 14 14 14 14 12 9 9 10 11 11 13 17 20 22 21 20 20 19 18 18 17 16 16 16 17 17 17 17 18 18 18 18 18 18 19 19 19 19 20 21 20 20 21 21
14 15 17 19 19 18 19 19 17 17 16 14 13 14 14 14 14 14 14 15 15 15 14 15 15 13 11 12 12 13 14 16 19 20 20 20 20 20 19 18 18 17 16 16 16 17 17 18 18 18 18 19 19 20 20 20 20 19 20 21 21 22 22
9 9 10 12 12 12 16 18 17 17 17 15 12 12 14 16 16 15 15 16 16 16 14 15 17 17 16 15 15 15 16 16 17 18 19 19 20 20 20 19 19 18 18 17 18 18 19 20 20 20 20 20 21 21 21 21 21 19 19 20 22 23 23
15 13 11 10 8 8 11 13 11 11 14 16 15 13 14 17 18 17 17 16 17 18 16 14 16 18 18 18 18 18 18 19 20 21 21 22 21 21 21 21 20 20 20 20 20 20 22 23 23 23 23 23 23 24 24 24 22 21 20 20 21 22 21
16 14 12 10 9 10 10 8 6 5 4 8 13 14 14 17 20 20 20 19 19 20 20 19 18 18 19 20 20 20 20 21 23 24 24 25 25 24 24 24 23 23 23 23 23 24 25 25 26 27 27 27 26 25 26 26 24 22 22 21 21 21 20
13 12 10 9 8 7 7 6 6 5 2 2 7 11 13 15 18 20 22 23 23 22 22 22 22 22 22 23 23 23 24 24 25 26 27 29 29 28 27 26 26 26 27 28 27 27 27 28 28 30 30 29 28 27 27 27 26 25 24 22 20 20 19
9 9 8 7 6 6 6 5 5 6 6 7 8 10 11 13 14 16 18 21 23 25 25 24 24 25 25 26 26 27 27 28 29 30 31 32 31 29 28 28 29 29 30 31 31 31 31 30 30 31 31 31 30 29 29 29 28 26 24 22 20 20 19
7 7 7 6 6 6 6 7 8 9 9 9 10 10 10 11 11 12 13 15 18 21 25 26 27 27 27 28 28 29 30 30 31 32 33 33 32 31 30 30 30 31 32 33 33 33 33 32 32 33 33 32 31 30 30 30 29 26 24 22 21 19 19
6 8 8 9 9 10 10 10 11 12 12 13 13 14 14 14 14 13 12 13 14 15 18 21 24 27 28 29 30 31 31 32 33 34 34 34 34 33 32 31 32 32 33 34 34 34 35 36 36 35 32 31 31 30 29 28 25 23 22 20 18 17 17
9 9 10 12 13 14 15 15 16 16 17 17 18 18 18 19 19 18 17 16 16 16 17 18 19 21 22 23 25 27 28 30 30 30 31 32 32 31 30 31 31 32 32 32 32 34 36 37 35 32 30 29 28 26 24 22 20 19 18 17 16 16 16
11 11 12 13 14 15 17 18 19 20 21 22 22 22 22 22 23 23 22 21 20 19 19 18 19 19 19 20 22 23 25 26 26 26 27 29 30 30 30 30 30 31 30 29 29 31 33 32 30 28 28 26 22 19 19 19 18 17 16 15 15 15 14
12 13 13 14 14 15 16 17 19 20 21 23 24 25 26 27 28 28 27 26 25 24 23 22 22 22 21 20 21 23 25 25 25 26 28 30 32 33 33 31 30 30 28 26 28 28 27 26 26 25 24 21 17 15 16 17 17 16 15 14 14 13 12
14 14 14 14 14 15 15 16 17 17 19 20 21 23 24 25 27 30 31 31 30 29 28 27 26 26 24 23 22 23 25 26 27 29 31 33 33 34 34 32 30 29 27 26 27 27 25 25 24 22 20 19 16 14 14 15 16 16 15 14 13 12 12
16 16 16 15 15 15 15 15 15 15 16 17 18 20 21 22 24 25 27 29 30 30 29 29 29 28 28 27 26 25 25 27 28 30 33 34 34 34 34 32 30 29 27 27 28 26 24 24 22 19 19 19 17 16 16 16 16 15 14 13 12 12 12

ECMWFFLT1_850_spd_045.txt.gz
Wind_Speed
14 13 11 10 9 9 10 10 9 9 9 9 8 7 6 6 6 7 8 8 8 8 8 7 8 9 9 10 11 11 11 11 11 10 10 11 12 12 14 12 11 10 9 9 11 12 12 14 12 11 11 11 11 11 11 10 9 7 7 6 6 6 5
13 11 11 11 10 11 11 10 9 8 8 7 6 5 5 7 8 8 8 9 9 8 7 7 7 8 8 9 10 11 12 12 12 11 11 11 11 11 13 13 12 10 9 9 10 10 12 15 16 17 16 14 13 13 12 11 11 9 9 8 6 5 5
14 12 11 11 11 10 11 10 9 7 6 5 4 3 4 6 9 9 8 9 9 8 7 7 6 6 7 7 8 9 11 12 13 12 12 12 11 10 12 13 13 12 10 11 12 11 11 13 17 20 18 16 16 15 13 11 10 10 8 7 5 4 3
14 13 13 13 12 11 10 9 7 6 5 3 2 1 2 4 7 8 9 8 8 8 8 8 8 6 6 7 7 8 10 12 12 12 13 13 12 12 12 13 13 12 10 11 12 12 12 13 18 22 19 16 17 16 14 11 9 8 8 8 7 5 4
14 13 14 14 13 11 9 8 7 6 5 4 3 2 1 2 3 5 8 8 7 7 6 8 10 8 7 7 7 7 8 9 10 11 11 12 12 12 12 13 12 11 10 9 10 11 11 12 16 22 21 17 17 16 14 11 9 7 7 7 8 7 7
13 12 13 14 12 10 9 8 7 5 4 4 4 3 3 2 1 2 5 7 7 5 3 6 10 9 8 8 8 8 8 8 8 9 9 11 11 10 10 12 12 11 10 9 10 11 11 13 18 22 21 17 16 16 14 11 9 7 5 6 7 7 8
13 12 13 13 11 10 9 8 6 4 3 4 5 5 4 4 2 2 4 6 6 4 2 5 9 10 9 8 8 8 8 8 8 9 10 10 11 10 11 12 12 11 10 9 10 11 11 15 20 22 22 18 15 15 14 12 9 6 6 6 6 6 7
12 12 13 12 11 10 9 8 5 3 3 3 3 5 5 5 5 4 4 6 6 6 5 6 9 10 10 9 8 8 8 10 10 10 10 10 10 11 12 13 12 12 11 9 10 11 11 14 18 19 19 18 18 17 14 13 10 6 5 6 6 6 6
13 13 13 12 12 11 9 7 5 4 4 2 1 3 5 6 7 6 6 7 7 7 7 7 9 11 12 10 8 8 8 10 10 10 10 10 10 11 12 13 13 13 12 10 11 12 12 15 16 16 14 13 15 19 18 14 10 7 6 6 6 6 6
12 11 12 13 13 12 9 7 5 5 4 2 2 3 4 6 7 8 8 8 8 9 8 7 7 10 12 11 10 9 9 9 11 11 11 11 11 12 13 14 14 14 13 13 14 13 14 17 15 13 12 7 6 14 19 16 12 9 8 7 6 6 5
11 11 13 15 15 13 10 7 5 4 3 3 4 4 4 4 7 10 10 9 9 10 9 6 6 9 12 11 11 11 10 10 12 13 12 12 13 14 14 14 14 14 14 14 15 14 15 18 15 12 11 7 4 6 11 13 12 10 8 8 7 5 4
12 12 14 16 16 13 9 6 4 4 4 4 5 6 6 5 6 10 11 10 10 11 11 7 6 9 11 11 11 12 11 12 13 14 13 12 12 13 14 14 15 16 16 16 15 16 17 18 16 13 11 9 7 4 3 6 9 9 9 8 6 5 5
13 12 15 16 15 11 7 5 4 3 5 5 6 7 7 5 5 9 9 9 9 10 11 9 7 8 9 10 11 11 11 11 12 13 13 11 10 10 11 14 16 17 18 18 17 17 17 18 16 14 12 10 10 9 6 3 3 4 8 9 6 5 6
13 13 15 15 12 10 7 5 5 4 5 6 6 5 4 5 7 8 8 8 9 10 10 10 9 8 8 9 11 12 11 9 10 11 11 10 9 9 10 14 17 17 17 18 17 16 15 16 16 14 14 14 13 12 12 8 3 3 7 9 8 7 6
15 13 15 14 11 10 8 6 5 5 5 6 5 4 6 7 8 8 8 8 9 10 11 11 11 9 8 10 12 13 13 11 10 10 10 9 9 9 10 14 16 16 16 15 14 14 13 13 14 14 15 15 15 14 15 13 9 6 6 8 10 9 8
16 15 14 13 11 10 9 7 5 5 6 6 5 7 8 8 8 8 8 8 8 9 10 12 12 11 9 10 13 14 14 13 12 12 11 11 10 10 10 12 14 14 13 13 12 12 12 11 11 12 13 14 14 15 16 16 14 10 9 9 10 10 9
17 17 15 15 12 10 8 6 5 5 5 4 6 8 8 8 8 8 9 9 8 8 8 9 10 10 9 11 13 14 15 15 14 13 13 13 13 12 11 11 12 12 12 12 13 12 12 12 11 10 11 12 13 16 18 19 17 14 11 11 11 9 8
19 19 18 18 14 10 8 5 3 4 4 5 7 7 7 7 7 7 8 9 9 8 8 8 9 10 10 11 13 14 15 15 14 13 13 14 15 15 14 13 12 12 12 12 12 12 11 11 11 10 10 11 13 17 21 21 19 15 12 11 11 10 9
22 22 22 21 17 13 9 5 2 3 4 6 7 6 6 6 5 3 4 7 9 9 9 9 9 10 11 12 13 15 15 14 13 12 12 13 16 17 17 16 14 13 13 12 12 12 10 10 9 8 7 8 12 17 21 21 19 16 14 11 10 11 11
25 24 22 20 18 13 8 5 3 3 5 7 7 5 4 4 4 3 2 2 6 9 9 10 11 11 11 11 12 14 15 14 13 14 14 13 14 16 17 18 17 16 14 13 12 11 11 9 8 7 6 7 10 14 18 20 18 16 15 13 12 12 12
26 24 21 16 16 14 10 7 5 5 6 7 7 5 3 3 3 3 2 1 3 5 7 9 12 13 12 11 13 14 15 14 14 16 15 14 14 15 16 17 16 15 14 13 13 12 11 10 9 9 9 9 11 13 16 17 16 15 15 14 14 13 13
23 24 23 18 17 17 13 10 8 8 8 9 8 7 6 5 5 5 4 3 2 3 3 6 11 13 12 12 13 14 15 15 15 16 16 15 15 16 16 16 15 14 13 12 12 12 11 11 11 11 12 12 13 14 15 15 15 15 15 15 15 15 16
22 23 22 20 19 17 14 13 11 10 10 10 9 9 8 7 7 7 6 6 5 4 3 3 6 10 11 12 13 14 15 15 16 16 17 17 18 17 17 17 16 15 14 13 13 13 14 14 15 15 15 15 16 17 17 17 17 17 17 16 16 17 18
18 19 18 18 18 17 15 14 12 12 12 11 10 11 10 9 9 9 9 8 8 7 6 4 4 6 8 9 11 13 15 16 16 17 17 18 19 19 19 18 17 17 16 15 15 16 16 17 18 19 19 18 17 18 18 18 18 18 18 19 19 19 20
14 14 16 16 16 15 15 14 13 12 12 11 11 12 11 11 11 11 11 11 11 10 9 8 8 8 8 8 9 11 13 15 16 18 19 19 19 19 19 19 19 18 18 17 17 17 17 18 18 20 21 20 19 19 19 19 19 19 20 21 21 22 22
14 14 15 15 15 14 14 14 13 12 11 10 10 11 13 14 13 13 13 13 13 12 11 11 11 12 13 13 12 11 12 13 14 16 18 19 20 20 20 19 19 19 19 19 18 18 18 18 17 18 20 21 22 21 20 20 20 21 21 22 23 23 24
12 13 13 13 13 14 14 13 13 13 13 13 12 12 13 15 15 15 15 14 14 14 13 13 13 13 14 16 17 16 15 15 15 15 16 18 19 20 20 19 19 20 20 20 20 19 19 19 19 19 20 21 22 23 23 23 23 23 23 24 25 25 25
12 11 10 10 11 12 12 12 12 14 16 17 17 17 16 16 17 17 17 17 17 16 15 16 16 15 15 16 18 20 21 20 19 19 19 20 20 20 21 21 21 21 21 22 22 22 22 22 22 22 22 22 23 25 26 27 26 26 26 26 26 26 26
13 12 10 9 10 10 10 10 11 13 15 15 17 18 19 18 18 17 17 18 19 19 18 17 17 17 17 17 18 20 22 24 24 24 24 24 24 24 24 24 25 25 25 25 25 25 26 26 26 26 26 26 27 28 28 29 30 30 29 28 27 28 28
12 12 10 9 9 9 10 10 10 12 13 13 12 14 16 17 17 17 17 19 21 22 21 20 19 19 18 18 18 19 22 24 24 25 26 26 26 27 27 27 27 27 27 27 28 29 29 31 31 30 29 29 30 30 31 32 32 31 30 27 27 29 28
6 7 6 6 6 6 7 7 8 9 10 10 10 11 12 13 13 15 16 18 21 23 24 25 24 23 22 21 20 20 22 24 25 26 26 27 28 29 29 28 28 28 29 30 32 31 32 36 37 35 33 34 35 35 35 35 35 34 31 29 29 30 28
0 1 2 3 4 4 5 6 8 9 10 10 11 11 12 12 13 13 14 16 18 21 24 25 26 28 28 27 26 25 24 24 25 27 29 30 31 31 28 26 27 29 30 32 32 32 33 38 41 38 33 33 35 36 36 37 38 37 34 33 32 31 29
6 7 7 8 9 9 10 11 11 12 12 13 14 14 15 15 15 15 16 16 17 19 21 23 24 26 28 29 30 29 28 26 25 25 27 29 31 31 27 25 25 27 28 29 29 30 32 35 39 39 34 32 34 36 36 37 39 37 33 32 31 30 28
10 11 12 13 13 14 15 16 17 18 18 19 19 20 20 21 21 21 21 21 21 21 22 23 23 24 26 27 28 29 30 30 27 24 24 25 26 26 25 24 24 24 25 26 27 29 30 31 34 37 37 36 37 37 36 37 37 33 29 28 27 26 25
13 13 14 15 16 17 18 19 20 22 23 23 24 25 26 26 27 27 27 27 26 25 25 26 26 26 26 27 27 28 30 30 28 27 27 27 27 25 24 23 24 24 25 26 27 27 29 30 32 34 36 37 38 38 36 32 28 27 26 24 23 23 22
15 15 16 17 18 18 19 20 21 22 24 26 27 28 29 30 31 32 32 32 31 30 30 30 30 30 30 30 31 31 31 31 30 30 31 31 30 28 25 24 25 26 27 28 28 27 27 29 31 33 35 37 39 38 31 24 22 24 24 24 23 21 19
16 16 17 17 18 19 19 20 21 22 23 25 26 28 29 30 32 33 34 35 34 34 33 33 32 32 32 33 33 34 34 34 33 33 34 34 33 30 29 27 26 26 28 29 30 28 27 28 30 31 34 37 38 33 25 21 23 24 24 23 21 18 15

ECMWFFLT1_850_spd_048.txt.gz
Wind_Speed
16 15 15 14 13 12 12 11 10 9 8 8 7 7 6 6 6 6 6 7 7 7 7 8 9 9 10 10 11 11 11 11 12 12 11 12 12 11 12 11 9 6 5 3 3 7 13 18 15 13 13 13 14 14 13 13 12 10 10 9 8 8 8
16 14 14 14 12 12 12 11 11 10 9 9 7 7 6 5 5 5 5 5 6 6 7 8 9 10 10 10 11 11 11 11 11 12 12 12 12 11 11 12 11 9 7 5 4 6 11 17 17 17 18 17 17 16 15 14 13 11 10 9 8 7 7
17 15 14 13 12 12 12 11 10 10 10 9 7 6 6 6 6 6 5 5 5 6 7 8 8 8 9 9 10 11 11 11 12 13 13 13 13 12 12 12 12 11 8 7 8 9 11 13 15 18 20 20 20 18 16 14 12 10 9 8 8 7 7
17 15 15 14 13 13 12 11 10 10 9 8 7 5 4 5 6 6 6 6 6 7 7 7 7 7 7 7 8 9 9 11 12 13 13 13 14 13 13 13 12 11 9 8 8 10 13 13 15 20 20 19 20 19 17 14 12 11 10 10 10 9 9
15 13 12 12 13 12 11 10 9 8 6 5 4 4 4 4 6 7 7 7 7 7 7 7 7 7 7 7 6 7 8 9 10 12 13 13 13 13 13 12 11 10 9 8 8 9 11 11 14 22 22 20 19 18 16 14 12 10 10 10 11 11 11
12 10 9 10 11 11 10 8 6 4 3 3 2 2 3 5 5 6 7 7 6 6 5 6 9 9 7 7 6 6 7 7 8 10 11 11 12 13 12 11 11 10 9 8 8 9 10 12 15 21 23 20 19 19 17 14 11 10 10 11 12 12 11
11 8 7 8 10 10 8 5 3 3 2 2 1 0 2 3 4 4 6 6 6 5 3 3 7 10 8 7 7 7 7 7 8 9 10 11 12 12 11 11 11 11 9 8 8 9 11 13 17 21 23 21 18 17 16 14 11 10 10 11 11 11 11
9 6 5 7 9 9 7 5 3 3 2 2 1 0 1 1 1 2 3 5 5 5 3 2 5 9 9 8 7 7 7 8 8 9 10 11 11 11 10 11 11 10 9 9 8 9 10 11 15 19 21 20 18 17 15 13 12 9 10 12 11 11 10
9 7 6 9 9 7 5 4 3 2 2 2 2 1 1 1 1 1 2 3 4 4 4 3 4 6 8 8 8 7 7 8 8 8 9 9 10 10 10 12 12 10 9 9 9 9 9 10 13 17 16 11 11 17 18 14 12 11 10 11 10 9 8
8 7 7 9 9 7 6 5 3 2 2 2 2 2 1 2 2 3 3 3 4 5 5 4 4 5 7 8 7 7 7 8 8 8 8 8 8 9 11 13 12 10 10 10 10 10 9 10 12 15 13 3 2 12 19 17 14 13 11 10 9 8 8
8 8 9 9 8 8 8 6 4 3 2 0 1 2 2 2 2 4 6 5 5 5 6 5 5 5 6 7 7 6 6 7 8 7 7 8 7 8 11 13 13 12 11 10 10 10 9 10 12 13 11 4 4 4 14 18 16 13 11 10 9 7 7
11 11 11 11 10 9 9 7 4 3 2 1 2 3 4 3 2 4 6 7 6 7 7 6 5 5 6 7 6 5 5 6 6 6 6 6 6 6 9 12 13 12 10 9 11 10 9 10 12 11 8 5 1 1 7 14 15 13 11 9 8 7 7
13 11 11 10 10 10 9 6 4 3 2 1 3 4 5 4 3 4 6 7 7 8 8 6 5 5 7 7 6 5 5 6 6 5 4 4 4 4 6 10 12 11 10 10 11 10 10 11 12 10 8 6 4 5 6 8 9 11 12 10 8 8 8
13 11 10 10 12 12 9 6 4 3 2 2 3 5 5 4 3 4 5 6 7 8 9 7 6 7 7 8 7 6 6 7 7 5 4 4 2 2 4 7 10 11 10 11 11 11 11 12 12 10 9 8 7 6 6 4 5 8 11 11 10 9 9
12 10 10 12 14 13 9 5 3 2 2 2 4 4 3 3 3 4 5 6 6 7 8 7 7 7 7 8 8 7 7 7 6 5 5 5 3 2 4 7 10 12 12 11 12 12 11 11 11 10 9 8 8 8 7 6 5 5 6 9 10 10 10
14 11 11 13 14 12 8 5 3 2 2 3 4 4 4 4 4 5 5 5 5 6 7 7 8 7 7 8 8 8 7 6 5 4 5 4 4 3 5 10 12 13 13 13 12 12 11 11 10 9 8 8 8 8 9 9 9 7 5 6 8 9 10
16 14 14 14 13 10 7 6 4 2 2 3 4 4 5 5 5 6 6 6 6 6 7 8 9 9 8 7 8 8 8 7 6 5 5 4 4 4 6 10 13 14 13 13 12 11 11 10 9 8 8 9 9 10 11 12 12 11 9 8 7 8 9
18 16 15 15 13 11 9 7 6 3 2 2 4 5 5 5 6 7 7 8 7 6 6 6 7 9 8 8 9 9 9 9 9 8 8 7 6 5 6 8 11 12 12 11 10 10 9 9 9 8 9 11 12 12 13 14 15 15 14 12 10 9 11
20 17 17 16 15 14 12 10 8 5 4 3 4 4 3 3 3 3 5 6 7 7 6 5 4 5 7 9 10 10 11 11 12 11 11 10 10 9 7 7 8 8 9 8 8 8 8 8 9 9 9 11 12 14 16 17 17 17 16 15 13 12 12
21 19 20 19 18 16 13 10 9 8 7 6 4 3 3 3 3 2 2 1 3 6 6 6 5 4 6 8 9 10 12 13 12 11 11 11 12 12 11 10 9 8 8 8 8 9 9 8 8 8 8 8 10 12 14 17 18 18 18 17 16 14 13
21 22 22 21 20 19 15 10 7 6 7 7 5 3 2 2 2 2 2 3 1 2 5 6 6 6 6 7 7 8 11 13 12 11 10 9 11 13 15 14 13 12 11 11 11 10 9 9 8 7 7 8 8 8 10 13 15 17 18 18 18 16 15
21 22 22 19 19 20 17 11 5 3 4 6 7 5 4 3 3 2 2 1 2 2 1 2 5 6 7 7 6 7 9 12 12 11 11 11 11 12 14 15 15 15 14 14 13 12 11 10 10 9 8 8 8 8 9 10 12 15 17 18 18 17 16
19 19 18 17 16 16 18 18 13 10 11 9 8 8 7 6 6 5 4 2 1 1 2 1 1 4 7 7 7 7 9 11 12 12 13 13 13 13 13 15 15 15 15 15 14 13 12 12 12 12 11 10 10 10 10 11 13 14 17 18 18 17 17
16 15 14 14 12 11 14 18 16 14 13 10 9 10 10 8 8 7 6 4 3 2 1 2 2 3 4 6 7 8 9 10 12 12 13 14 14 13 13 14 15 15 15 15 14 14 14 14 14 14 14 14 13 13 13 13 14 15 17 18 17 17 18
14 13 12 13 12 12 13 15 15 14 13 11 11 11 11 10 9 8 7 6 5 4 3 4 4 4 5 5 6 7 8 9 10 11 12 14 14 14 15 15 16 16 16 16 16 16 15 16 16 15 15 16 16 16 16 16 17 17 18 18 18 18 18
14 13 13 14 15 15 15 14 15 14 13 12 13 12 12 12 10 9 8 8 7 7 6 6 7 7 7 7 8 8 8 8 9 9 10 11 13 14 15 16 17 18 18 17 17 16 16 16 16 16 16 16 16 16 17 17 18 18 19 19 19 19 20
13 14 14 14 16 17 16 16 16 16 14 13 13 12 12 12 11 11 10 10 9 10 9 9 9 9 9 9 10 11 11 11 11 10 10 11 11 12 13 14 16 16 16 16 16 15 15 16 16 16 16 16 17 17 17 17 18 19 20 21 21 22 21
11 11 12 12 14 15 16 15 16 17 16 15 14 13 11 11 11 12 12 12 12 12 12 12 12 12 12 12 12 13 14 15 15 15 15 14 14 14 13 14 16 16 16 16 16 17 17 17 18 18 18 19 19 19 20 20 20 21 22 23 24 24 24
11 10 9 9 11 12 13 14 14 15 15 15 14 13 12 12 11 12 12 12 13 13 14 14 14 14 14 14 15 15 16 17 18 19 19 19 19 19 18 19 19 19 19 20 19 20 20 21 21 21 21 21 22 23 24 24 25 26 26 26 27 27 27
13 11 10 8 8 9 10 11 12 11 12 12 12 11 12 12 12 12 12 12 13 14 15 16 16 17 17 17 17 18 18 19 20 21 21 22 23 24 24 25 24 24 24 24 23 23 24 25 25 25 24 24 24 26 27 27 29 30 29 29 30 30 30
11 10 9 8 8 8 8 8 9 9 9 10 10 10 10 9 10 11 12 13 13 14 15 17 18 19 20 20 20 21 21 22 22 23 23 24 25 26 27 27 27 27 27 26 25 26 27 28 29 28 27 26 28 29 29 29 31 32 32 33 33 32 32
6 5 4 4 4 4 4 5 5 6 7 7 8 8 8 8 9 10 11 12 13 13 14 15 16 18 19 20 21 22 23 24 24 25 26 26 27 28 28 27 27 28 28 27 27 27 27 28 29 28 27 28 29 30 29 29 31 32 32 33 33 32 32
2 1 1 2 2 3 4 5 5 6 8 9 9 10 10 11 11 12 12 13 14 15 15 15 16 17 18 19 20 21 23 24 26 27 28 29 30 31 31 29 27 26 26 25 24 24 24 25 26 25 24 25 27 27 27 27 28 28 28 29 30 31 30
5 6 6 7 7 8 9 10 11 11 12 13 14 14 15 15 16 16 17 17 18 18 18 19 19 20 21 21 22 23 23 24 25 27 28 30 31 33 33 30 26 25 26 26 24 21 20 21 22 23 23 23 24 24 25 26 27 27 27 28 30 31 30
8 8 9 9 10 11 12 12 14 14 15 16 17 18 19 20 20 20 21 21 21 22 23 23 24 25 25 26 26 27 27 27 27 28 28 29 30 31 31 30 27 24 24 27 28 26 23 22 23 23 23 23 23 23 24 25 26 27 28 30 31 32 32
10 10 11 11 12 13 13 14 15 17 17 18 19 20 21 22 23 23 24 24 24 24 25 25 26 26 27 28 29 30 30 30 31 32 32 32 32 31 31 31 29 26 25 25 27 28 28 27 27 27 25 24 23 24 25 26 27 28 30 31 34 36 35
11 12 13 13 14 14 15 16 17 18 19 20 21 22 23 24 26 27 28 28 28 27 27 27 27 27 27 28 29 30 32 32 32 33 35 35 35 35 35 34 32 31 29 28 27 28 29 30 30 29 28 26 26 25 26 27 29 30 33 34 34 34 33